Time,TemperatureF,DewpointF,PressureIn,WindDirection,WindDirectionDegrees,WindSpeedMPH,WindSpeedGustMPH,Humidity,HourlyPrecipIn,Conditions,Clouds,dailyrainin,SoftwareType,DateUTC
2013-06-21 00:01:00,64.9,63.4,30.26,West,270,0.0,0.0,95,0.00,,,0.00,Wunderground v.1.15,2013-06-21 04:01:00,
2013-06-21 00:02:00,64.8,63.3,30.26,West,269,0.0,0.0,95,0.00,,,0.00,Wunderground v.1.15,2013-06-21 04:02:00,
2013-06-21 00:03:00,64.8,63.3,30.26,West,270,0.0,0.0,95,0.00,,,0.00,Wunderground v.1.15,2013-06-21 04:03:00,
2013-06-21 00:06:00,64.8,63.3,30.26,West,270,0.0,0.0,95,0.00,,,0.00,Wunderground v.1.15,2013-06-21 04:06:00,
2013-06-21 00:07:00,64.9,63.7,30.26,West,270,0.0,0.0,96,0.00,,,0.00,Wunderground v.1.15,2013-06-21 04:07:00,
2013-06-21 00:10:00,65.0,63.8,30.26,West,270,0.0,0.0,96,0.00,,,0.00,Wunderground v.1.15,2013-06-21 04:10:00,
2013-06-21 00:11:00,65.0,63.8,30.26,West,270,0.0,0.0,96,0.00,,,0.00,Wunderground v.1.15,2013-06-21 04:11:00,
2013-06-21 00:13:00,65.0,63.8,30.26,West,270,0.0,0.0,96,0.00,,,0.00,Wunderground v.1.15,2013-06-21 04:13:00,
2013-06-21 00:15:00,65.0,63.8,30.26,West,270,0.0,0.0,96,0.00,,,0.00,Wunderground v.1.15,2013-06-21 04:15:00,
2013-06-21 00:16:00,65.0,63.8,30.26,West,270,0.0,0.0,96,0.00,,,0.00,Wunderground v.1.15,2013-06-21 04:16:00,
2013-06-21 00:17:00,65.0,63.8,30.26,West,270,0.0,0.0,96,0.00,,,0.00,Wunderground v.1.15,2013-06-21 04:17:00,
2013-06-21 00:18:00,65.0,63.8,30.26,West,270,0.0,0.0,96,0.00,,,0.00,Wunderground v.1.15,2013-06-21 04:18:00,
2013-06-21 00:20:00,64.9,63.7,30.26,West,269,0.0,0.0,96,0.00,,,0.00,Wunderground v.1.15,2013-06-21 04:20:00,
2013-06-21 00:21:00,65.0,63.8,30.26,West,270,0.0,0.0,96,0.00,,,0.00,Wunderground v.1.15,2013-06-21 04:21:00,
2013-06-21 00:23:00,64.9,63.7,30.26,West,270,0.0,0.0,96,0.00,,,0.00,Wunderground v.1.15,2013-06-21 04:23:00,
2013-06-21 00:26:00,64.9,63.7,30.26,West,270,0.0,0.0,96,0.00,,,0.00,Wunderground v.1.15,2013-06-21 04:26:00,
2013-06-21 00:27:00,64.9,63.7,30.26,West,270,0.0,0.0,96,0.00,,,0.00,Wunderground v.1.15,2013-06-21 04:27:00,
2013-06-21 00:28:00,64.8,63.6,30.26,West,270,0.0,0.0,96,0.00,,,0.00,Wunderground v.1.15,2013-06-21 04:28:00,
2013-06-21 00:32:00,64.8,63.6,30.26,West,269,0.0,0.0,96,0.00,,,0.00,Wunderground v.1.15,2013-06-21 04:32:00,
2013-06-21 00:33:00,64.8,63.6,30.26,West,270,0.0,0.0,96,0.00,,,0.00,Wunderground v.1.15,2013-06-21 04:33:00,
2013-06-21 00:35:00,64.8,63.6,30.26,West,269,0.0,0.0,96,0.00,,,0.00,Wunderground v.1.15,2013-06-21 04:35:00,
2013-06-21 00:36:00,64.8,63.6,30.26,West,270,0.0,0.0,96,0.00,,,0.00,Wunderground v.1.15,2013-06-21 04:36:00,
2013-06-21 00:41:00,64.7,63.5,30.26,West,270,0.0,0.0,96,0.00,,,0.00,Wunderground v.1.15,2013-06-21 04:41:00,
2013-06-21 00:45:00,64.7,63.5,30.26,West,270,0.0,0.0,96,0.00,,,0.00,Wunderground v.1.15,2013-06-21 04:45:00,
2013-06-21 00:47:00,64.7,63.5,30.26,West,270,0.0,0.0,96,0.00,,,0.00,Wunderground v.1.15,2013-06-21 04:47:00,
2013-06-21 00:49:00,64.7,63.5,30.26,West,270,0.0,0.0,96,0.00,,,0.00,Wunderground v.1.15,2013-06-21 04:49:00,
2013-06-21 00:50:00,64.7,63.5,30.26,West,270,0.0,0.0,96,0.00,,,0.00,Wunderground v.1.15,2013-06-21 04:50:00,
2013-06-21 00:53:00,64.6,63.4,30.26,West,270,0.0,0.0,96,0.00,,,0.00,Wunderground v.1.15,2013-06-21 04:53:00,
2013-06-21 00:55:00,64.6,63.4,30.26,West,270,0.0,0.0,96,0.00,,,0.00,Wunderground v.1.15,2013-06-21 04:55:00,
2013-06-21 00:57:00,64.5,63.3,30.26,West,270,0.0,0.0,96,0.00,,,0.00,Wunderground v.1.15,2013-06-21 04:57:00,
2013-06-21 00:59:00,64.5,63.3,30.26,West,270,0.0,0.0,96,0.00,,,0.00,Wunderground v.1.15,2013-06-21 04:59:00,
2013-06-21 01:03:00,64.3,63.1,30.26,West,269,0.0,0.0,96,0.00,,,0.00,Wunderground v.1.15,2013-06-21 05:03:00,
2013-06-21 01:05:00,64.3,63.1,30.26,West,270,0.0,0.0,96,0.00,,,0.00,Wunderground v.1.15,2013-06-21 05:05:00,
2013-06-21 01:07:00,64.3,63.1,30.26,West,269,0.0,0.0,96,0.00,,,0.00,Wunderground v.1.15,2013-06-21 05:07:00,
2013-06-21 01:08:00,64.3,63.1,30.26,West,270,0.0,0.0,96,0.00,,,0.00,Wunderground v.1.15,2013-06-21 05:08:00,
2013-06-21 01:10:00,64.3,63.1,30.26,West,270,0.0,0.0,96,0.00,,,0.00,Wunderground v.1.15,2013-06-21 05:10:00,
2013-06-21 01:14:00,64.3,63.1,30.26,West,270,0.0,0.0,96,0.00,,,0.00,Wunderground v.1.15,2013-06-21 05:14:00,
2013-06-21 01:15:00,64.3,63.1,30.26,West,270,0.0,0.0,96,0.00,,,0.00,Wunderground v.1.15,2013-06-21 05:15:00,
2013-06-21 01:18:00,64.3,63.1,30.26,West,270,0.0,0.0,96,0.00,,,0.00,Wunderground v.1.15,2013-06-21 05:18:00,
2013-06-21 01:19:00,64.2,63.0,30.26,West,270,0.0,0.0,96,0.00,,,0.00,Wunderground v.1.15,2013-06-21 05:19:00,
2013-06-21 01:22:00,64.2,63.0,30.26,West,270,0.0,0.0,96,0.00,,,0.00,Wunderground v.1.15,2013-06-21 05:22:00,
2013-06-21 01:24:00,64.1,62.9,30.26,West,270,0.0,0.0,96,0.00,,,0.00,Wunderground v.1.15,2013-06-21 05:24:00,
2013-06-21 01:25:00,64.0,62.8,30.26,West,270,0.0,0.0,96,0.00,,,0.00,Wunderground v.1.15,2013-06-21 05:25:00,
2013-06-21 01:27:00,63.9,62.7,30.25,West,270,0.0,0.0,96,0.00,,,0.00,Wunderground v.1.15,2013-06-21 05:27:00,
2013-06-21 01:30:00,63.8,62.6,30.25,West,270,0.0,0.0,96,0.00,,,0.00,Wunderground v.1.15,2013-06-21 05:30:00,
2013-06-21 01:33:00,63.8,62.6,30.25,West,270,0.0,0.0,96,0.00,,,0.00,Wunderground v.1.15,2013-06-21 05:33:00,
2013-06-21 01:34:00,63.8,62.6,30.25,West,270,0.0,0.0,96,0.00,,,0.00,Wunderground v.1.15,2013-06-21 05:34:00,
2013-06-21 01:35:00,63.8,62.6,30.25,West,270,0.0,0.0,96,0.00,,,0.00,Wunderground v.1.15,2013-06-21 05:35:00,
2013-06-21 01:39:00,63.7,62.5,30.25,West,270,0.0,0.0,96,0.00,,,0.00,Wunderground v.1.15,2013-06-21 05:39:00,
2013-06-21 01:40:00,63.7,62.5,30.25,West,269,0.0,0.0,96,0.00,,,0.00,Wunderground v.1.15,2013-06-21 05:40:00,
2013-06-21 01:43:00,63.9,63.0,30.25,West,270,0.0,0.0,97,0.00,,,0.00,Wunderground v.1.15,2013-06-21 05:43:00,
2013-06-21 01:45:00,63.9,63.0,30.25,West,270,0.0,0.0,97,0.00,,,0.00,Wunderground v.1.15,2013-06-21 05:45:00,
2013-06-21 01:46:00,63.9,63.0,30.25,West,270,0.0,0.0,97,0.00,,,0.00,Wunderground v.1.15,2013-06-21 05:46:00,
2013-06-21 01:47:00,64.0,63.1,30.25,West,270,0.0,0.0,97,0.00,,,0.00,Wunderground v.1.15,2013-06-21 05:47:00,
2013-06-21 01:50:00,64.1,63.2,30.25,West,270,0.0,0.0,97,0.00,,,0.00,Wunderground v.1.15,2013-06-21 05:50:00,
2013-06-21 01:52:00,64.1,63.2,30.25,West,269,0.0,0.0,97,0.00,,,0.00,Wunderground v.1.15,2013-06-21 05:52:00,
2013-06-21 01:57:00,64.1,63.2,30.25,West,270,0.0,0.0,97,0.00,,,0.00,Wunderground v.1.15,2013-06-21 05:57:00,
2013-06-21 02:00:00,64.2,63.3,30.25,West,269,0.0,0.0,97,0.00,,,0.00,Wunderground v.1.15,2013-06-21 06:00:00,
2013-06-21 02:01:00,64.2,63.3,30.25,West,270,0.0,0.0,97,0.00,,,0.00,Wunderground v.1.15,2013-06-21 06:01:00,
2013-06-21 02:02:00,64.2,63.3,30.25,West,270,0.0,0.0,97,0.00,,,0.00,Wunderground v.1.15,2013-06-21 06:02:00,
2013-06-21 02:03:00,64.2,63.3,30.25,West,270,0.0,0.0,97,0.00,,,0.00,Wunderground v.1.15,2013-06-21 06:03:00,
2013-06-21 02:05:00,64.1,63.2,30.25,West,270,0.0,0.0,97,0.00,,,0.00,Wunderground v.1.15,2013-06-21 06:05:00,
2013-06-21 02:06:00,64.1,63.2,30.25,West,270,0.0,0.0,97,0.00,,,0.00,Wunderground v.1.15,2013-06-21 06:06:00,
2013-06-21 02:07:00,64.1,63.2,30.25,West,270,0.0,0.0,97,0.00,,,0.00,Wunderground v.1.15,2013-06-21 06:07:00,
2013-06-21 02:08:00,64.1,63.2,30.25,West,269,0.0,0.0,97,0.00,,,0.00,Wunderground v.1.15,2013-06-21 06:08:00,
2013-06-21 02:10:00,64.0,63.1,30.25,West,270,0.0,0.0,97,0.00,,,0.00,Wunderground v.1.15,2013-06-21 06:10:00,
2013-06-21 02:11:00,64.0,63.1,30.25,West,270,0.0,0.0,97,0.00,,,0.00,Wunderground v.1.15,2013-06-21 06:11:00,
2013-06-21 02:12:00,64.0,63.1,30.25,West,269,0.0,0.0,97,0.00,,,0.00,Wunderground v.1.15,2013-06-21 06:12:00,
2013-06-21 02:13:00,64.0,63.1,30.25,West,270,0.0,0.0,97,0.00,,,0.00,Wunderground v.1.15,2013-06-21 06:13:00,
2013-06-21 02:15:00,64.0,63.1,30.25,West,269,0.0,0.0,97,0.00,,,0.00,Wunderground v.1.15,2013-06-21 06:15:00,
2013-06-21 02:16:00,64.0,63.1,30.25,West,270,0.0,0.0,97,0.00,,,0.00,Wunderground v.1.15,2013-06-21 06:16:00,
2013-06-21 02:17:00,64.0,63.1,30.25,West,270,0.0,0.0,97,0.00,,,0.00,Wunderground v.1.15,2013-06-21 06:17:00,
2013-06-21 02:18:00,63.9,63.0,30.25,West,270,0.0,0.0,97,0.00,,,0.00,Wunderground v.1.15,2013-06-21 06:18:00,
2013-06-21 02:20:00,63.8,62.9,30.25,West,270,0.0,0.0,97,0.00,,,0.00,Wunderground v.1.15,2013-06-21 06:20:00,
2013-06-21 02:21:00,63.8,62.9,30.25,West,270,0.0,0.0,97,0.00,,,0.00,Wunderground v.1.15,2013-06-21 06:21:00,
2013-06-21 02:22:00,63.8,62.9,30.25,West,270,0.0,0.0,97,0.00,,,0.00,Wunderground v.1.15,2013-06-21 06:22:00,
2013-06-21 02:23:00,63.8,62.9,30.25,West,270,0.0,0.0,97,0.00,,,0.00,Wunderground v.1.15,2013-06-21 06:23:00,
2013-06-21 02:26:00,63.7,62.8,30.25,West,270,0.0,0.0,97,0.00,,,0.00,Wunderground v.1.15,2013-06-21 06:26:00,
2013-06-21 02:27:00,63.7,62.8,30.25,West,270,0.0,0.0,97,0.00,,,0.00,Wunderground v.1.15,2013-06-21 06:27:00,
2013-06-21 02:28:00,63.7,62.8,30.25,West,270,0.0,0.0,97,0.00,,,0.00,Wunderground v.1.15,2013-06-21 06:28:00,
2013-06-21 02:31:00,63.6,62.7,30.25,West,270,0.0,0.0,97,0.00,,,0.00,Wunderground v.1.15,2013-06-21 06:31:00,
2013-06-21 02:32:00,63.6,62.7,30.25,West,270,0.0,0.0,97,0.00,,,0.00,Wunderground v.1.15,2013-06-21 06:32:00,
2013-06-21 02:33:00,63.6,62.7,30.25,West,270,0.0,0.0,97,0.00,,,0.00,Wunderground v.1.15,2013-06-21 06:33:00,
2013-06-21 02:36:00,63.8,62.9,30.25,West,270,0.0,0.0,97,0.00,,,0.00,Wunderground v.1.15,2013-06-21 06:36:00,
2013-06-21 02:37:00,63.9,63.3,30.25,West,270,0.0,0.0,98,0.00,,,0.00,Wunderground v.1.15,2013-06-21 06:37:00,
2013-06-21 02:38:00,63.9,63.3,30.25,West,270,0.0,0.0,98,0.00,,,0.00,Wunderground v.1.15,2013-06-21 06:38:00,
2013-06-21 02:39:00,63.9,63.3,30.25,West,270,0.0,0.0,98,0.00,,,0.00,Wunderground v.1.15,2013-06-21 06:39:00,
2013-06-21 02:41:00,64.0,63.4,30.25,West,270,0.0,0.0,98,0.00,,,0.00,Wunderground v.1.15,2013-06-21 06:41:00,
2013-06-21 02:42:00,64.1,63.5,30.25,West,269,0.0,0.0,98,0.00,,,0.00,Wunderground v.1.15,2013-06-21 06:42:00,
2013-06-21 02:43:00,64.1,63.5,30.25,West,270,0.0,0.0,98,0.00,,,0.00,Wunderground v.1.15,2013-06-21 06:43:00,
2013-06-21 02:44:00,64.1,63.5,30.25,West,270,0.0,0.0,98,0.00,,,0.00,Wunderground v.1.15,2013-06-21 06:44:00,
2013-06-21 02:46:00,64.1,63.5,30.25,West,270,0.0,0.0,98,0.00,,,0.00,Wunderground v.1.15,2013-06-21 06:46:00,
2013-06-21 02:48:00,64.1,63.2,30.24,West,270,0.0,0.0,97,0.00,,,0.00,Wunderground v.1.15,2013-06-21 06:48:00,
2013-06-21 02:49:00,64.1,63.2,30.24,West,269,0.0,0.0,97,0.00,,,0.00,Wunderground v.1.15,2013-06-21 06:49:00,
2013-06-21 02:52:00,64.1,63.2,30.24,West,270,0.0,0.0,97,0.00,,,0.00,Wunderground v.1.15,2013-06-21 06:52:00,
2013-06-21 02:53:00,64.1,63.2,30.24,West,270,0.0,0.0,97,0.00,,,0.00,Wunderground v.1.15,2013-06-21 06:53:00,
2013-06-21 02:54:00,64.1,63.2,30.24,West,270,0.0,0.0,97,0.00,,,0.00,Wunderground v.1.15,2013-06-21 06:54:00,
2013-06-21 02:57:00,64.1,63.2,30.24,West,270,0.0,0.0,97,0.00,,,0.00,Wunderground v.1.15,2013-06-21 06:57:00,
2013-06-21 02:58:00,64.2,63.3,30.24,West,270,0.0,0.0,97,0.00,,,0.00,Wunderground v.1.15,2013-06-21 06:58:00,
2013-06-21 02:59:00,64.1,63.2,30.24,West,270,0.0,0.0,97,0.00,,,0.00,Wunderground v.1.15,2013-06-21 06:59:00,
2013-06-21 03:02:00,64.1,63.2,30.24,West,270,0.0,0.0,97,0.00,,,0.00,Wunderground v.1.15,2013-06-21 07:02:00,
2013-06-21 03:03:00,64.1,63.2,30.24,West,270,0.0,0.0,97,0.00,,,0.00,Wunderground v.1.15,2013-06-21 07:03:00,
2013-06-21 03:04:00,64.1,63.2,30.24,West,270,0.0,0.0,97,0.00,,,0.00,Wunderground v.1.15,2013-06-21 07:04:00,
2013-06-21 03:07:00,64.0,63.1,30.24,West,269,0.0,0.0,97,0.00,,,0.00,Wunderground v.1.15,2013-06-21 07:07:00,
2013-06-21 03:08:00,63.9,63.0,30.25,West,270,0.0,0.0,97,0.00,,,0.00,Wunderground v.1.15,2013-06-21 07:08:00,
2013-06-21 03:09:00,63.9,63.0,30.25,West,270,0.0,0.0,97,0.00,,,0.00,Wunderground v.1.15,2013-06-21 07:09:00,
2013-06-21 03:13:00,63.8,62.9,30.25,West,270,0.0,0.0,97,0.00,,,0.00,Wunderground v.1.15,2013-06-21 07:13:00,
2013-06-21 03:14:00,63.8,62.9,30.25,West,270,0.0,0.0,97,0.00,,,0.00,Wunderground v.1.15,2013-06-21 07:14:00,
2013-06-21 03:18:00,63.7,62.8,30.25,West,269,0.0,0.0,97,0.00,,,0.00,Wunderground v.1.15,2013-06-21 07:18:00,
2013-06-21 03:19:00,63.6,62.7,30.25,West,270,0.0,0.0,97,0.00,,,0.00,Wunderground v.1.15,2013-06-21 07:19:00,
2013-06-21 03:20:00,63.6,62.7,30.25,West,270,0.0,0.0,97,0.00,,,0.00,Wunderground v.1.15,2013-06-21 07:20:00,
2013-06-21 03:23:00,63.6,62.7,30.25,West,270,0.0,0.0,97,0.00,,,0.00,Wunderground v.1.15,2013-06-21 07:23:00,
2013-06-21 03:24:00,63.5,62.6,30.25,West,269,0.0,0.0,97,0.00,,,0.00,Wunderground v.1.15,2013-06-21 07:24:00,
2013-06-21 03:25:00,63.5,62.6,30.25,West,270,0.0,0.0,97,0.00,,,0.00,Wunderground v.1.15,2013-06-21 07:25:00,
2013-06-21 03:28:00,63.4,62.5,30.25,West,270,0.0,0.0,97,0.00,,,0.00,Wunderground v.1.15,2013-06-21 07:28:00,
2013-06-21 03:30:00,63.4,62.5,30.25,West,270,0.0,0.0,97,0.00,,,0.00,Wunderground v.1.15,2013-06-21 07:30:00,
2013-06-21 03:33:00,63.4,62.5,30.25,West,270,0.0,0.0,97,0.00,,,0.00,Wunderground v.1.15,2013-06-21 07:33:00,
2013-06-21 03:35:00,63.4,62.5,30.25,West,270,0.0,0.0,97,0.00,,,0.00,Wunderground v.1.15,2013-06-21 07:35:00,
2013-06-21 03:36:00,63.5,62.6,30.25,WSW,255,0.0,0.0,97,0.00,,,0.00,Wunderground v.1.15,2013-06-21 07:36:00,
2013-06-21 03:38:00,63.5,62.9,30.25,WSW,254,0.0,0.0,98,0.00,,,0.00,Wunderground v.1.15,2013-06-21 07:38:00,
2013-06-21 03:40:00,63.7,63.1,30.25,SE,139,0.0,0.0,98,0.00,,,0.00,Wunderground v.1.15,2013-06-21 07:40:00,
2013-06-21 03:41:00,63.7,63.1,30.25,South,169,0.0,0.0,98,0.00,,,0.00,Wunderground v.1.15,2013-06-21 07:41:00,
2013-06-21 03:43:00,64.0,63.4,30.25,SE,134,0.0,2.0,98,0.00,,,0.00,Wunderground v.1.15,2013-06-21 07:43:00,
2013-06-21 03:45:00,64.1,63.5,30.25,SE,134,0.0,2.0,98,0.00,,,0.00,Wunderground v.1.15,2013-06-21 07:45:00,
2013-06-21 03:46:00,64.1,63.5,30.25,SE,134,0.0,2.0,98,0.00,,,0.00,Wunderground v.1.15,2013-06-21 07:46:00,
2013-06-21 03:49:00,64.1,63.5,30.25,SE,134,0.0,2.0,98,0.00,,,0.00,Wunderground v.1.15,2013-06-21 07:49:00,
2013-06-21 03:50:00,64.1,63.5,30.25,SE,134,0.0,0.0,98,0.00,,,0.00,Wunderground v.1.15,2013-06-21 07:50:00,
2013-06-21 03:51:00,64.1,63.5,30.25,SE,134,0.0,0.0,98,0.00,,,0.00,Wunderground v.1.15,2013-06-21 07:51:00,
2013-06-21 03:52:00,64.1,63.5,30.25,SE,134,0.0,0.0,98,0.00,,,0.00,Wunderground v.1.15,2013-06-21 07:52:00,
2013-06-21 03:54:00,64.0,63.4,30.25,SE,134,0.0,0.0,98,0.00,,,0.00,Wunderground v.1.15,2013-06-21 07:54:00,
2013-06-21 03:55:00,64.0,63.1,30.25,SE,134,0.0,0.0,97,0.00,,,0.00,Wunderground v.1.15,2013-06-21 07:55:00,
2013-06-21 03:56:00,64.0,63.1,30.25,SE,134,0.0,0.0,97,0.00,,,0.00,Wunderground v.1.15,2013-06-21 07:56:00,
2013-06-21 03:57:00,63.9,63.0,30.25,SE,134,0.0,0.0,97,0.00,,,0.00,Wunderground v.1.15,2013-06-21 07:57:00,
2013-06-21 03:59:00,63.8,62.9,30.25,SE,134,0.0,0.0,97,0.00,,,0.00,Wunderground v.1.15,2013-06-21 07:59:00,
2013-06-21 04:00:00,63.8,62.9,30.25,SE,134,0.0,0.0,97,0.00,,,0.00,Wunderground v.1.15,2013-06-21 08:00:00,
2013-06-21 04:01:00,63.8,62.9,30.25,SE,134,0.0,0.0,97,0.00,,,0.00,Wunderground v.1.15,2013-06-21 08:01:00,
2013-06-21 04:02:00,63.7,62.8,30.25,SE,134,0.0,0.0,97,0.00,,,0.00,Wunderground v.1.15,2013-06-21 08:02:00,
2013-06-21 04:04:00,63.7,62.8,30.25,SE,134,0.0,0.0,97,0.00,,,0.00,Wunderground v.1.15,2013-06-21 08:04:00,
2013-06-21 04:06:00,63.6,62.7,30.25,SE,134,0.0,0.0,97,0.00,,,0.00,Wunderground v.1.15,2013-06-21 08:06:00,
2013-06-21 04:07:00,63.6,62.7,30.25,SE,134,0.0,0.0,97,0.00,,,0.00,Wunderground v.1.15,2013-06-21 08:07:00,
2013-06-21 04:09:00,63.5,62.6,30.25,SE,134,0.0,0.0,97,0.00,,,0.00,Wunderground v.1.15,2013-06-21 08:09:00,
2013-06-21 04:11:00,63.5,62.6,30.25,SE,134,0.0,0.0,97,0.00,,,0.00,Wunderground v.1.15,2013-06-21 08:11:00,
2013-06-21 04:12:00,63.5,62.6,30.25,SE,134,0.0,0.0,97,0.00,,,0.00,Wunderground v.1.15,2013-06-21 08:12:00,
2013-06-21 04:14:00,63.4,62.5,30.25,SE,134,0.0,0.0,97,0.00,,,0.00,Wunderground v.1.15,2013-06-21 08:14:00,
2013-06-21 04:16:00,63.4,62.5,30.25,SE,134,0.0,0.0,97,0.00,,,0.00,Wunderground v.1.15,2013-06-21 08:16:00,
2013-06-21 04:17:00,63.4,62.5,30.25,SE,134,0.0,0.0,97,0.00,,,0.00,Wunderground v.1.15,2013-06-21 08:17:00,
2013-06-21 04:18:00,63.3,62.4,30.25,SE,134,0.0,0.0,97,0.00,,,0.00,Wunderground v.1.15,2013-06-21 08:18:00,
2013-06-21 04:20:00,63.3,62.4,30.24,SE,134,0.0,0.0,97,0.00,,,0.00,Wunderground v.1.15,2013-06-21 08:20:00,
2013-06-21 04:22:00,63.2,62.3,30.25,SE,134,0.0,0.0,97,0.00,,,0.00,Wunderground v.1.15,2013-06-21 08:22:00,
2013-06-21 04:23:00,63.1,62.2,30.25,SE,134,0.0,0.0,97,0.00,,,0.00,Wunderground v.1.15,2013-06-21 08:23:00,
2013-06-21 04:25:00,63.0,62.1,30.25,SE,134,0.0,0.0,97,0.00,,,0.00,Wunderground v.1.15,2013-06-21 08:25:00,
2013-06-21 04:27:00,63.0,62.1,30.25,SE,134,0.0,0.0,97,0.00,,,0.00,Wunderground v.1.15,2013-06-21 08:27:00,
2013-06-21 04:28:00,62.9,62.0,30.25,SE,134,0.0,0.0,97,0.00,,,0.00,Wunderground v.1.15,2013-06-21 08:28:00,
2013-06-21 04:30:00,63.0,62.1,30.25,SE,134,0.0,0.0,97,0.00,,,0.00,Wunderground v.1.15,2013-06-21 08:30:00,
2013-06-21 04:32:00,63.0,62.4,30.25,South,169,0.0,0.0,98,0.00,,,0.00,Wunderground v.1.15,2013-06-21 08:32:00,
2013-06-21 04:33:00,63.2,62.6,30.25,South,169,0.0,0.0,98,0.00,,,0.00,Wunderground v.1.15,2013-06-21 08:33:00,
2013-06-21 04:35:00,63.2,62.6,30.25,South,169,0.0,0.0,98,0.00,,,0.00,Wunderground v.1.15,2013-06-21 08:35:00,
2013-06-21 04:37:00,63.3,62.7,30.25,SE,124,1.0,1.0,98,0.00,,,0.00,Wunderground v.1.15,2013-06-21 08:37:00,
2013-06-21 04:38:00,63.3,62.7,30.25,SE,140,0.0,2.0,98,0.00,,,0.00,Wunderground v.1.15,2013-06-21 08:38:00,
2013-06-21 04:39:00,63.4,62.8,30.25,SE,139,0.0,2.0,98,0.00,,,0.00,Wunderground v.1.15,2013-06-21 08:39:00,
2013-06-21 04:40:00,63.5,62.9,30.25,SE,139,0.0,0.0,98,0.00,,,0.00,Wunderground v.1.15,2013-06-21 08:40:00,
2013-06-21 04:42:00,63.4,62.8,30.25,SE,140,0.0,0.0,98,0.00,,,0.00,Wunderground v.1.15,2013-06-21 08:42:00,
2013-06-21 04:43:00,63.4,62.8,30.25,SE,139,0.0,0.0,98,0.00,,,0.00,Wunderground v.1.15,2013-06-21 08:43:00,
2013-06-21 04:44:00,63.4,62.8,30.25,SE,139,0.0,0.0,98,0.00,,,0.00,Wunderground v.1.15,2013-06-21 08:44:00,
2013-06-21 04:45:00,63.5,62.9,30.25,SE,139,0.0,0.0,98,0.00,,,0.00,Wunderground v.1.15,2013-06-21 08:45:00,
2013-06-21 04:47:00,63.5,62.9,30.25,SE,140,0.0,0.0,98,0.00,,,0.00,Wunderground v.1.15,2013-06-21 08:47:00,
2013-06-21 04:48:00,63.5,62.9,30.25,SE,140,0.0,0.0,98,0.00,,,0.00,Wunderground v.1.15,2013-06-21 08:48:00,
2013-06-21 04:49:00,63.5,62.9,30.25,SE,140,0.0,0.0,98,0.00,,,0.00,Wunderground v.1.15,2013-06-21 08:49:00,
2013-06-21 04:51:00,63.5,62.9,30.25,SE,140,0.0,0.0,98,0.00,,,0.00,Wunderground v.1.15,2013-06-21 08:51:00,
2013-06-21 04:53:00,63.5,62.9,30.25,SE,140,0.0,0.0,98,0.00,,,0.00,Wunderground v.1.15,2013-06-21 08:53:00,
2013-06-21 04:54:00,63.5,62.9,30.25,SE,140,0.0,0.0,98,0.00,,,0.00,Wunderground v.1.15,2013-06-21 08:54:00,
2013-06-21 04:56:00,63.4,62.8,30.25,SE,140,0.0,0.0,98,0.00,,,0.00,Wunderground v.1.15,2013-06-21 08:56:00,
2013-06-21 04:58:00,63.4,62.8,30.25,SE,139,0.0,0.0,98,0.00,,,0.00,Wunderground v.1.15,2013-06-21 08:58:00,
2013-06-21 04:59:00,63.4,62.8,30.25,SE,140,0.0,0.0,98,0.00,,,0.00,Wunderground v.1.15,2013-06-21 08:59:00,
2013-06-21 05:01:00,63.4,62.5,30.25,SE,140,0.0,0.0,97,0.00,,,0.00,Wunderground v.1.15,2013-06-21 09:01:00,
2013-06-21 05:03:00,63.3,62.4,30.25,SE,139,0.0,0.0,97,0.00,,,0.00,Wunderground v.1.15,2013-06-21 09:03:00,
2013-06-21 05:04:00,63.3,62.4,30.25,SE,140,0.0,0.0,97,0.00,,,0.00,Wunderground v.1.15,2013-06-21 09:04:00,
2013-06-21 05:06:00,63.3,62.4,30.25,SE,139,0.0,0.0,97,0.00,,,0.00,Wunderground v.1.15,2013-06-21 09:06:00,
2013-06-21 05:08:00,63.3,62.7,30.25,SE,139,0.0,0.0,98,0.00,,,0.00,Wunderground v.1.15,2013-06-21 09:08:00,
2013-06-21 05:09:00,63.3,62.7,30.25,SE,139,0.0,0.0,98,0.00,,,0.00,Wunderground v.1.15,2013-06-21 09:09:00,
2013-06-21 05:11:00,63.3,62.7,30.25,SE,140,0.0,0.0,98,0.00,,,0.00,Wunderground v.1.15,2013-06-21 09:11:00,
2013-06-21 05:13:00,63.3,62.4,30.26,SE,140,0.0,0.0,97,0.00,,,0.00,Wunderground v.1.15,2013-06-21 09:13:00,
2013-06-21 05:14:00,63.2,62.3,30.26,SE,140,0.0,0.0,97,0.00,,,0.00,Wunderground v.1.15,2013-06-21 09:14:00,
2013-06-21 05:16:00,63.1,62.2,30.26,SE,139,0.0,0.0,97,0.00,,,0.00,Wunderground v.1.15,2013-06-21 09:16:00,
2013-06-21 05:18:00,63.0,62.1,30.26,SE,140,0.0,0.0,97,0.00,,,0.00,Wunderground v.1.15,2013-06-21 09:18:00,
2013-06-21 05:19:00,63.0,62.1,30.26,SE,140,0.0,0.0,97,0.00,,,0.00,Wunderground v.1.15,2013-06-21 09:19:00,
2013-06-21 05:22:00,63.1,62.5,30.25,SE,140,0.0,0.0,98,0.00,,,0.00,Wunderground v.1.15,2013-06-21 09:22:00,
2013-06-21 05:23:00,63.0,62.4,30.25,SE,140,0.0,0.0,98,0.00,,,0.00,Wunderground v.1.15,2013-06-21 09:23:00,
2013-06-21 05:24:00,63.0,62.4,30.25,SE,140,0.0,0.0,98,0.00,,,0.00,Wunderground v.1.15,2013-06-21 09:24:00,
2013-06-21 05:25:00,63.0,62.4,30.25,SE,139,0.0,0.0,98,0.00,,,0.00,Wunderground v.1.15,2013-06-21 09:25:00,
2013-06-21 05:27:00,63.1,62.5,30.25,SE,140,0.0,0.0,98,0.00,,,0.00,Wunderground v.1.15,2013-06-21 09:27:00,
2013-06-21 05:28:00,63.1,62.5,30.26,SE,140,0.0,0.0,98,0.00,,,0.00,Wunderground v.1.15,2013-06-21 09:28:00,
2013-06-21 05:29:00,63.1,62.5,30.26,SE,139,0.0,0.0,98,0.00,,,0.00,Wunderground v.1.15,2013-06-21 09:29:00,
2013-06-21 05:30:00,63.1,62.5,30.26,SE,139,0.0,0.0,98,0.00,,,0.00,Wunderground v.1.15,2013-06-21 09:30:00,
2013-06-21 05:32:00,63.1,62.5,30.26,SE,136,1.0,1.0,98,0.00,,,0.00,Wunderground v.1.15,2013-06-21 09:32:00,
2013-06-21 05:34:00,63.1,62.5,30.26,SSE,166,0.0,1.0,98,0.00,,,0.00,Wunderground v.1.15,2013-06-21 09:34:00,
2013-06-21 05:35:00,63.1,62.5,30.26,South,190,1.0,1.0,98,0.00,,,0.00,Wunderground v.1.15,2013-06-21 09:35:00,
2013-06-21 05:37:00,63.2,62.6,30.26,SSE,148,0.0,1.0,98,0.00,,,0.00,Wunderground v.1.15,2013-06-21 09:37:00,
2013-06-21 05:39:00,63.3,62.7,30.26,SSE,160,0.0,1.0,98,0.00,,,0.00,Wunderground v.1.15,2013-06-21 09:39:00,
2013-06-21 05:40:00,63.3,62.7,30.26,SSE,160,0.0,0.0,98,0.00,,,0.00,Wunderground v.1.15,2013-06-21 09:40:00,
2013-06-21 05:41:00,63.3,62.7,30.26,SSE,160,0.0,0.0,98,0.00,,,0.00,Wunderground v.1.15,2013-06-21 09:41:00,
2013-06-21 05:43:00,63.3,62.7,30.26,South,169,1.0,2.0,98,0.00,,,0.00,Wunderground v.1.15,2013-06-21 09:43:00,
2013-06-21 05:44:00,63.4,62.8,30.26,South,169,0.0,2.0,98,0.00,,,0.00,Wunderground v.1.15,2013-06-21 09:44:00,
2013-06-21 05:45:00,63.5,62.9,30.26,SSE,160,1.0,2.0,98,0.00,,,0.00,Wunderground v.1.15,2013-06-21 09:45:00,
2013-06-21 05:46:00,63.5,62.9,30.26,SSE,160,0.0,2.0,98,0.00,,,0.00,Wunderground v.1.15,2013-06-21 09:46:00,
2013-06-21 05:48:00,63.5,62.9,30.26,SSE,160,0.0,2.0,98,0.00,,,0.00,Wunderground v.1.15,2013-06-21 09:48:00,
2013-06-21 05:49:00,63.5,62.6,30.26,SSE,160,0.0,2.0,97,0.00,,,0.00,Wunderground v.1.15,2013-06-21 09:49:00,
2013-06-21 05:50:00,63.4,62.5,30.26,SSE,160,0.0,0.0,97,0.00,,,0.00,Wunderground v.1.15,2013-06-21 09:50:00,
2013-06-21 05:52:00,63.4,62.5,30.26,SSE,160,0.0,0.0,97,0.00,,,0.00,Wunderground v.1.15,2013-06-21 09:52:00,
2013-06-21 05:53:00,63.4,62.5,30.26,SSE,160,0.0,0.0,97,0.00,,,0.00,Wunderground v.1.15,2013-06-21 09:53:00,
2013-06-21 05:54:00,63.3,62.4,30.26,SSE,160,0.0,0.0,97,0.00,,,0.00,Wunderground v.1.15,2013-06-21 09:54:00,
2013-06-21 05:55:00,63.3,62.4,30.26,SSE,160,0.0,0.0,97,0.00,,,0.00,Wunderground v.1.15,2013-06-21 09:55:00,
2013-06-21 05:57:00,63.2,62.3,30.26,SSE,160,0.0,0.0,97,0.00,,,0.00,Wunderground v.1.15,2013-06-21 09:57:00,
2013-06-21 05:58:00,63.2,62.3,30.26,SSE,160,0.0,0.0,97,0.00,,,0.00,Wunderground v.1.15,2013-06-21 09:58:00,
2013-06-21 05:59:00,63.2,62.3,30.26,SSE,160,0.0,0.0,97,0.00,,,0.00,Wunderground v.1.15,2013-06-21 09:59:00,
2013-06-21 06:00:00,63.1,62.2,30.26,SSE,160,0.0,0.0,97,0.00,,,0.00,Wunderground v.1.15,2013-06-21 10:00:00,
2013-06-21 06:02:00,63.0,62.1,30.26,SSE,160,0.0,0.0,97,0.00,,,0.00,Wunderground v.1.15,2013-06-21 10:02:00,
2013-06-21 06:03:00,63.0,62.1,30.26,SSE,160,0.0,0.0,97,0.00,,,0.00,Wunderground v.1.15,2013-06-21 10:03:00,
2013-06-21 06:04:00,63.0,62.1,30.26,SSE,160,0.0,0.0,97,0.00,,,0.00,Wunderground v.1.15,2013-06-21 10:04:00,
2013-06-21 06:06:00,62.9,62.0,30.26,SSE,160,0.0,0.0,97,0.00,,,0.00,Wunderground v.1.15,2013-06-21 10:06:00,
2013-06-21 06:07:00,62.8,61.9,30.26,SSE,160,0.0,0.0,97,0.00,,,0.00,Wunderground v.1.15,2013-06-21 10:07:00,
2013-06-21 06:08:00,62.8,61.9,30.27,SSE,160,0.0,0.0,97,0.00,,,0.00,Wunderground v.1.15,2013-06-21 10:08:00,
2013-06-21 06:10:00,62.8,61.9,30.26,SSE,160,0.0,0.0,97,0.00,,,0.00,Wunderground v.1.15,2013-06-21 10:10:00,
2013-06-21 06:11:00,62.9,62.0,30.26,SSE,160,0.0,0.0,97,0.00,,,0.00,Wunderground v.1.15,2013-06-21 10:11:00,
2013-06-21 06:13:00,62.9,62.0,30.27,SSE,158,0.0,0.0,97,0.00,,,0.00,Wunderground v.1.15,2013-06-21 10:13:00,
2013-06-21 06:15:00,62.8,61.9,30.27,SSE,158,0.0,0.0,97,0.00,,,0.00,Wunderground v.1.15,2013-06-21 10:15:00,
2013-06-21 06:16:00,62.8,61.9,30.27,SSE,158,0.0,0.0,97,0.00,,,0.00,Wunderground v.1.15,2013-06-21 10:16:00,
2013-06-21 06:18:00,62.8,61.9,30.27,SSE,158,0.0,0.0,97,0.00,,,0.00,Wunderground v.1.15,2013-06-21 10:18:00,
2013-06-21 06:19:00,62.8,61.9,30.27,SSE,158,0.0,0.0,97,0.00,,,0.00,Wunderground v.1.15,2013-06-21 10:19:00,
2013-06-21 06:20:00,62.8,61.9,30.27,SSE,158,0.0,0.0,97,0.00,,,0.00,Wunderground v.1.15,2013-06-21 10:20:00,
2013-06-21 06:21:00,62.8,61.9,30.27,SSE,158,0.0,0.0,97,0.00,,,0.00,Wunderground v.1.15,2013-06-21 10:21:00,
2013-06-21 06:23:00,62.8,61.9,30.27,SSW,206,0.0,1.0,97,0.00,,,0.00,Wunderground v.1.15,2013-06-21 10:23:00,
2013-06-21 06:24:00,62.8,61.9,30.27,SSW,205,0.0,1.0,97,0.00,,,0.00,Wunderground v.1.15,2013-06-21 10:24:00,
2013-06-21 06:25:00,62.9,62.0,30.27,SSW,205,0.0,1.0,97,0.00,,,0.00,Wunderground v.1.15,2013-06-21 10:25:00,
2013-06-21 06:26:00,62.9,62.0,30.27,SSW,207,0.0,1.0,97,0.00,,,0.00,Wunderground v.1.15,2013-06-21 10:26:00,
2013-06-21 06:27:00,62.9,62.0,30.27,SSW,207,0.0,1.0,97,0.00,,,0.00,Wunderground v.1.15,2013-06-21 10:27:00,
2013-06-21 06:28:00,62.9,62.0,30.27,SSW,207,0.0,1.0,97,0.00,,,0.00,Wunderground v.1.15,2013-06-21 10:28:00,
2013-06-21 06:29:00,62.9,62.0,30.27,SSW,207,0.0,1.0,97,0.00,,,0.00,Wunderground v.1.15,2013-06-21 10:29:00,
2013-06-21 06:30:00,62.8,61.9,30.27,SSW,207,1.0,1.0,97,0.00,,,0.00,Wunderground v.1.15,2013-06-21 10:30:00,
2013-06-21 06:31:00,62.9,62.0,30.27,SSW,205,1.0,1.0,97,0.00,,,0.00,Wunderground v.1.15,2013-06-21 10:31:00,
2013-06-21 06:32:00,62.9,62.0,30.27,SSW,205,1.0,1.0,97,0.00,,,0.00,Wunderground v.1.15,2013-06-21 10:32:00,
2013-06-21 06:34:00,62.9,62.0,30.27,SSW,205,0.0,1.0,97,0.00,,,0.00,Wunderground v.1.15,2013-06-21 10:34:00,
2013-06-21 06:35:00,63.0,62.1,30.27,SSW,205,0.0,1.0,97,0.00,,,0.00,Wunderground v.1.15,2013-06-21 10:35:00,
2013-06-21 06:37:00,63.0,62.1,30.27,SSW,205,1.0,1.0,97,0.00,,,0.00,Wunderground v.1.15,2013-06-21 10:37:00,
2013-06-21 06:39:00,63.1,62.2,30.27,SE,140,2.0,2.0,97,0.00,,,0.00,Wunderground v.1.15,2013-06-21 10:39:00,
2013-06-21 06:40:00,63.2,62.3,30.27,SSE,166,1.0,1.0,97,0.00,,,0.00,Wunderground v.1.15,2013-06-21 10:40:00,
2013-06-21 06:41:00,63.2,62.3,30.27,SSE,160,0.0,1.0,97,0.00,,,0.00,Wunderground v.1.15,2013-06-21 10:41:00,
2013-06-21 06:42:00,63.3,62.4,30.27,SSE,166,1.0,1.0,97,0.00,,,0.00,Wunderground v.1.15,2013-06-21 10:42:00,
2013-06-21 06:44:00,63.4,62.5,30.27,SSE,148,1.0,1.0,97,0.00,,,0.00,Wunderground v.1.15,2013-06-21 10:44:00,
2013-06-21 06:45:00,63.4,62.5,30.27,SSE,155,1.0,3.0,97,0.00,,,0.00,Wunderground v.1.15,2013-06-21 10:45:00,
2013-06-21 06:46:00,63.5,62.6,30.27,SSE,155,0.0,3.0,97,0.00,,,0.00,Wunderground v.1.15,2013-06-21 10:46:00,
2013-06-21 06:47:00,63.6,62.7,30.27,SSE,155,1.0,3.0,97,0.00,,,0.00,Wunderground v.1.15,2013-06-21 10:47:00,
2013-06-21 06:50:00,63.7,62.5,30.28,SW,226,1.0,2.0,96,0.00,,,0.00,Wunderground v.1.15,2013-06-21 10:50:00,
2013-06-21 06:51:00,63.8,62.6,30.28,South,181,2.0,2.0,96,0.00,,,0.00,Wunderground v.1.15,2013-06-21 10:51:00,
2013-06-21 06:52:00,63.9,62.7,30.28,SSW,202,1.0,2.0,96,0.00,,,0.00,Wunderground v.1.15,2013-06-21 10:52:00,
2013-06-21 06:55:00,64.1,62.9,30.28,SSE,150,0.0,2.0,96,0.00,,,0.00,Wunderground v.1.15,2013-06-21 10:55:00,
2013-06-21 06:57:00,64.2,63.0,30.28,SSE,150,0.0,2.0,96,0.00,,,0.00,Wunderground v.1.15,2013-06-21 10:57:00,
2013-06-21 06:58:00,64.3,62.8,30.28,SSE,150,0.0,2.0,95,0.00,,,0.00,Wunderground v.1.15,2013-06-21 10:58:00,
2013-06-21 07:00:00,64.4,62.9,30.28,SSW,196,1.0,1.0,95,0.00,,,0.00,Wunderground v.1.15,2013-06-21 11:00:00,
2013-06-21 07:02:00,64.5,63.0,30.28,SSW,195,0.0,1.0,95,0.00,,,0.00,Wunderground v.1.15,2013-06-21 11:02:00,
2013-06-21 07:03:00,64.5,63.0,30.28,SSW,195,0.0,1.0,95,0.00,,,0.00,Wunderground v.1.15,2013-06-21 11:03:00,
2013-06-21 07:05:00,64.6,63.1,30.28,SSW,212,1.0,1.0,95,0.00,,,0.00,Wunderground v.1.15,2013-06-21 11:05:00,
2013-06-21 07:07:00,64.8,63.3,30.28,SSW,197,1.0,1.0,95,0.00,,,0.00,Wunderground v.1.15,2013-06-21 11:07:00,
2013-06-21 07:08:00,64.8,63.3,30.28,SW,232,1.0,1.0,95,0.00,,,0.00,Wunderground v.1.15,2013-06-21 11:08:00,
2013-06-21 07:10:00,64.9,63.1,30.28,SSW,201,1.0,1.0,94,0.00,,,0.00,Wunderground v.1.15,2013-06-21 11:10:00,
2013-06-21 07:13:00,65.1,63.3,30.28,South,186,0.0,2.0,94,0.00,,,0.00,Wunderground v.1.15,2013-06-21 11:13:00,
2013-06-21 07:15:00,65.3,63.5,30.29,South,176,1.0,2.0,94,0.00,,,0.00,Wunderground v.1.15,2013-06-21 11:15:00,
2013-06-21 07:16:00,65.3,63.5,30.29,SSE,166,1.0,3.0,94,0.00,,,0.00,Wunderground v.1.15,2013-06-21 11:16:00,
2013-06-21 07:18:00,65.5,63.4,30.29,South,184,1.0,3.0,93,0.00,,,0.00,Wunderground v.1.15,2013-06-21 11:18:00,
2013-06-21 07:21:00,65.7,63.6,30.29,SSW,211,3.0,3.0,93,0.00,,,0.00,Wunderground v.1.15,2013-06-21 11:21:00,
2013-06-21 07:23:00,65.8,63.4,30.29,SSE,162,0.0,3.0,92,0.00,,,0.00,Wunderground v.1.15,2013-06-21 11:23:00,
2013-06-21 07:26:00,66.1,63.7,30.29,SW,235,1.0,4.0,92,0.00,,,0.00,Wunderground v.1.15,2013-06-21 11:26:00,
2013-06-21 07:28:00,66.4,64.0,30.29,South,188,1.0,5.0,92,0.00,,,0.00,Wunderground v.1.15,2013-06-21 11:28:00,
2013-06-21 07:29:00,66.5,63.8,30.29,SSW,210,2.0,5.0,91,0.00,,,0.00,Wunderground v.1.15,2013-06-21 11:29:00,
2013-06-21 07:31:00,66.8,64.1,30.29,WSW,253,1.0,2.0,91,0.00,,,0.00,Wunderground v.1.15,2013-06-21 11:31:00,
2013-06-21 07:33:00,67.1,64.1,30.29,SW,226,3.0,3.0,90,0.00,,,0.00,Wunderground v.1.15,2013-06-21 11:33:00,
2013-06-21 07:34:00,67.1,64.1,30.29,SW,232,2.0,3.0,90,0.00,,,0.00,Wunderground v.1.15,2013-06-21 11:34:00,
2013-06-21 07:36:00,67.2,63.8,30.29,WSW,240,1.0,5.0,89,0.00,,,0.00,Wunderground v.1.15,2013-06-21 11:36:00,
2013-06-21 07:38:00,67.3,64.3,30.29,SSW,210,0.0,5.0,90,0.00,,,0.00,Wunderground v.1.15,2013-06-21 11:38:00,
2013-06-21 07:39:00,67.3,64.3,30.29,SSW,212,0.0,5.0,90,0.00,,,0.00,Wunderground v.1.15,2013-06-21 11:39:00,
2013-06-21 07:41:00,67.6,64.2,30.29,SSW,196,2.0,3.0,89,0.00,,,0.00,Wunderground v.1.15,2013-06-21 11:41:00,
2013-06-21 07:42:00,67.7,64.3,30.30,SSW,203,0.0,3.0,89,0.00,,,0.00,Wunderground v.1.15,2013-06-21 11:42:00,
2013-06-21 07:43:00,67.9,64.5,30.29,SSW,205,3.0,4.0,89,0.00,,,0.00,Wunderground v.1.15,2013-06-21 11:43:00,
2013-06-21 07:44:00,68.0,64.3,30.30,SSE,158,4.0,5.0,88,0.00,,,0.00,Wunderground v.1.15,2013-06-21 11:44:00,
2013-06-21 07:45:00,68.0,64.3,30.30,West,274,2.0,5.0,88,0.00,,,0.00,Wunderground v.1.15,2013-06-21 11:45:00,
2013-06-21 07:46:00,68.2,64.5,30.30,East,86,2.0,5.0,88,0.00,,,0.00,Wunderground v.1.15,2013-06-21 11:46:00,
2013-06-21 07:47:00,68.3,64.6,30.30,South,181,2.0,5.0,88,0.00,,,0.00,Wunderground v.1.15,2013-06-21 11:47:00,
2013-06-21 07:48:00,68.4,64.4,30.30,SW,232,1.0,5.0,87,0.00,,,0.00,Wunderground v.1.15,2013-06-21 11:48:00,
2013-06-21 07:50:00,68.5,64.8,30.30,SSW,210,0.0,2.0,88,0.00,,,0.00,Wunderground v.1.15,2013-06-21 11:50:00,
2013-06-21 07:52:00,68.6,64.6,30.30,SSW,197,3.0,3.0,87,0.00,,,0.00,Wunderground v.1.15,2013-06-21 11:52:00,
2013-06-21 07:54:00,68.7,64.7,30.30,SW,233,2.0,4.0,87,0.00,,,0.00,Wunderground v.1.15,2013-06-21 11:54:00,
2013-06-21 07:55:00,68.8,64.8,30.30,South,187,0.0,4.0,87,0.00,,,0.00,Wunderground v.1.15,2013-06-21 11:55:00,
2013-06-21 07:57:00,68.9,64.5,30.30,South,177,2.0,4.0,86,0.00,,,0.00,Wunderground v.1.15,2013-06-21 11:57:00,
2013-06-21 07:59:00,69.1,64.7,30.30,SSW,194,2.0,4.0,86,0.00,,,0.00,Wunderground v.1.15,2013-06-21 11:59:00,
2013-06-21 08:00:00,69.2,64.5,30.30,SSW,195,3.0,3.0,85,0.00,,,0.00,Wunderground v.1.15,2013-06-21 12:00:00,
2013-06-21 08:02:00,69.4,64.7,30.30,WSW,256,3.0,4.0,85,0.00,,,0.00,Wunderground v.1.15,2013-06-21 12:02:00,
2013-06-21 08:04:00,69.6,64.9,30.30,West,262,4.0,4.0,85,0.00,,,0.00,Wunderground v.1.15,2013-06-21 12:04:00,
2013-06-21 08:05:00,69.7,64.6,30.30,WSW,249,2.0,4.0,84,0.00,,,0.00,Wunderground v.1.15,2013-06-21 12:05:00,
2013-06-21 08:07:00,69.8,64.7,30.30,WSW,238,2.0,5.0,84,0.00,,,0.00,Wunderground v.1.15,2013-06-21 12:07:00,
2013-06-21 08:09:00,69.9,64.8,30.30,WSW,256,3.0,5.0,84,0.00,,,0.00,Wunderground v.1.15,2013-06-21 12:09:00,
2013-06-21 08:10:00,69.9,64.5,30.30,West,259,3.0,5.0,83,0.00,,,0.00,Wunderground v.1.15,2013-06-21 12:10:00,
2013-06-21 08:11:00,70.0,64.6,30.30,SW,229,3.0,5.0,83,0.00,,,0.00,Wunderground v.1.15,2013-06-21 12:11:00,
2013-06-21 08:12:00,70.0,64.2,30.30,WSW,252,2.0,5.0,82,0.00,,,0.00,Wunderground v.1.15,2013-06-21 12:12:00,
2013-06-21 08:13:00,70.0,64.6,30.30,SSE,160,1.0,5.0,83,0.00,,,0.00,Wunderground v.1.15,2013-06-21 12:13:00,
2013-06-21 08:14:00,70.1,64.7,30.30,WSW,248,4.0,5.0,83,0.00,,,0.00,Wunderground v.1.15,2013-06-21 12:14:00,
2013-06-21 08:16:00,70.1,64.7,30.30,SE,140,1.0,5.0,83,0.00,,,0.00,Wunderground v.1.15,2013-06-21 12:16:00,
2013-06-21 08:17:00,70.1,64.7,30.30,WSW,242,1.0,5.0,83,0.00,,,0.00,Wunderground v.1.15,2013-06-21 12:17:00,
2013-06-21 08:18:00,70.1,64.7,30.30,WSW,242,0.0,5.0,83,0.00,,,0.00,Wunderground v.1.15,2013-06-21 12:18:00,
2013-06-21 08:19:00,70.1,64.7,30.30,WSW,243,0.0,5.0,83,0.00,,,0.00,Wunderground v.1.15,2013-06-21 12:19:00,
2013-06-21 08:21:00,70.3,64.9,30.30,SW,229,2.0,3.0,83,0.00,,,0.00,Wunderground v.1.15,2013-06-21 12:21:00,
2013-06-21 08:23:00,70.6,64.5,30.31,WSW,245,3.0,3.0,81,0.00,,,0.00,Wunderground v.1.15,2013-06-21 12:23:00,
2013-06-21 08:24:00,70.7,64.2,30.31,SSW,204,4.0,5.0,80,0.00,,,0.00,Wunderground v.1.15,2013-06-21 12:24:00,
2013-06-21 08:26:00,70.8,64.7,30.31,WSW,238,1.0,5.0,81,0.00,,,0.00,Wunderground v.1.15,2013-06-21 12:26:00,
2013-06-21 08:27:00,70.9,64.4,30.31,SW,225,1.0,5.0,80,0.00,,,0.00,Wunderground v.1.15,2013-06-21 12:27:00,
2013-06-21 08:28:00,71.0,64.5,30.31,WSW,243,5.0,6.0,80,0.00,,,0.00,Wunderground v.1.15,2013-06-21 12:28:00,
2013-06-21 08:29:00,71.0,64.2,30.31,SE,131,2.0,6.0,79,0.00,,,0.00,Wunderground v.1.15,2013-06-21 12:29:00,
2013-06-21 08:31:00,71.1,64.3,30.31,WSW,256,1.0,5.0,79,0.00,,,0.00,Wunderground v.1.15,2013-06-21 12:31:00,
2013-06-21 08:32:00,71.2,64.7,30.31,SSW,204,2.0,5.0,80,0.00,,,0.00,Wunderground v.1.15,2013-06-21 12:32:00,
2013-06-21 08:33:00,71.3,64.8,30.31,SSW,212,0.0,5.0,80,0.00,,,0.00,Wunderground v.1.15,2013-06-21 12:33:00,
2013-06-21 08:34:00,71.4,64.9,30.31,WSW,240,6.0,6.0,80,0.00,,,0.00,Wunderground v.1.15,2013-06-21 12:34:00,
2013-06-21 08:36:00,71.5,64.3,30.31,WSW,243,5.0,7.0,78,0.00,,,0.00,Wunderground v.1.15,2013-06-21 12:36:00,
2013-06-21 08:37:00,71.5,64.3,30.31,SW,229,0.0,7.0,78,0.00,,,0.00,Wunderground v.1.15,2013-06-21 12:37:00,
2013-06-21 08:38:00,71.6,64.7,30.31,East,98,0.0,7.0,79,0.00,,,0.00,Wunderground v.1.15,2013-06-21 12:38:00,
2013-06-21 08:39:00,71.6,64.4,30.31,West,273,3.0,7.0,78,0.00,,,0.00,Wunderground v.1.15,2013-06-21 12:39:00,
2013-06-21 08:40:00,71.6,64.4,30.31,WSW,256,3.0,3.0,78,0.00,,,0.00,Wunderground v.1.15,2013-06-21 12:40:00,
2013-06-21 08:41:00,71.6,64.0,30.31,WSW,253,2.0,8.0,77,0.00,,,0.00,Wunderground v.1.15,2013-06-21 12:41:00,
2013-06-21 08:43:00,71.7,64.8,30.31,WSW,250,0.0,8.0,79,0.00,,,0.00,Wunderground v.1.15,2013-06-21 12:43:00,
2013-06-21 08:44:00,71.8,64.9,30.31,SSW,212,1.0,8.0,79,0.00,,,0.00,Wunderground v.1.15,2013-06-21 12:44:00,
2013-06-21 08:45:00,72.0,64.8,30.31,SW,229,5.0,8.0,78,0.00,,,0.00,Wunderground v.1.15,2013-06-21 12:45:00,
2013-06-21 08:46:00,72.0,64.8,30.31,WSW,238,2.0,8.0,78,0.00,,,0.00,Wunderground v.1.15,2013-06-21 12:46:00,
2013-06-21 08:48:00,72.1,64.9,30.31,SSE,163,1.0,8.0,78,0.00,,,0.00,Wunderground v.1.15,2013-06-21 12:48:00,
2013-06-21 08:50:00,72.3,64.7,30.31,SW,222,3.0,6.0,77,0.00,,,0.00,Wunderground v.1.15,2013-06-21 12:50:00,
2013-06-21 08:51:00,72.3,64.7,30.31,SW,229,3.0,6.0,77,0.00,,,0.00,Wunderground v.1.15,2013-06-21 12:51:00,
2013-06-21 08:52:00,72.3,65.1,30.31,SSW,210,2.0,6.0,78,0.00,,,0.00,Wunderground v.1.15,2013-06-21 12:52:00,
2013-06-21 08:53:00,72.3,65.1,30.31,WSW,253,0.0,6.0,78,0.00,,,0.00,Wunderground v.1.15,2013-06-21 12:53:00,
2013-06-21 08:54:00,72.3,65.8,30.31,WSW,253,0.0,6.0,80,0.00,,,0.00,Wunderground v.1.15,2013-06-21 12:54:00,
2013-06-21 08:55:00,72.5,65.6,30.31,WSW,238,0.0,6.0,79,0.00,,,0.00,Wunderground v.1.15,2013-06-21 12:55:00,
2013-06-21 08:56:00,72.6,65.7,30.31,WSW,238,0.0,6.0,79,0.00,,,0.00,Wunderground v.1.15,2013-06-21 12:56:00,
2013-06-21 08:57:00,72.7,65.4,30.31,West,267,0.0,6.0,78,0.00,,,0.00,Wunderground v.1.15,2013-06-21 12:57:00,
2013-06-21 08:58:00,72.7,65.1,30.31,ESE,105,0.0,6.0,77,0.00,,,0.00,Wunderground v.1.15,2013-06-21 12:58:00,
2013-06-21 08:59:00,72.7,64.7,30.31,ENE,58,1.0,6.0,76,0.00,,,0.00,Wunderground v.1.15,2013-06-21 12:59:00,
2013-06-21 09:00:00,72.7,64.7,30.32,ESE,108,0.0,2.0,76,0.00,,,0.00,Wunderground v.1.15,2013-06-21 13:00:00,
2013-06-21 09:01:00,72.6,64.6,30.32,SE,145,1.0,2.0,76,0.00,,,0.00,Wunderground v.1.15,2013-06-21 13:01:00,
2013-06-21 09:02:00,72.6,64.6,30.31,West,281,1.0,2.0,76,0.00,,,0.00,Wunderground v.1.15,2013-06-21 13:02:00,
2013-06-21 09:03:00,72.4,64.8,30.31,North,1,0.0,2.0,77,0.00,,,0.00,Wunderground v.1.15,2013-06-21 13:03:00,
2013-06-21 09:04:00,72.4,65.2,30.32,North,4,0.0,2.0,78,0.00,,,0.00,Wunderground v.1.15,2013-06-21 13:04:00,
2013-06-21 09:05:00,72.4,65.2,30.32,North,1,0.0,2.0,78,0.00,,,0.00,Wunderground v.1.15,2013-06-21 13:05:00,
2013-06-21 09:06:00,72.4,64.8,30.31,WNW,298,1.0,2.0,77,0.00,,,0.00,Wunderground v.1.15,2013-06-21 13:06:00,
2013-06-21 09:07:00,72.4,64.8,30.31,West,264,1.0,2.0,77,0.00,,,0.00,Wunderground v.1.15,2013-06-21 13:07:00,
2013-06-21 09:09:00,72.2,64.6,30.31,SSW,210,5.0,5.0,77,0.00,,,0.00,Wunderground v.1.15,2013-06-21 13:09:00,
2013-06-21 09:11:00,72.0,65.1,30.32,NNW,327,3.0,3.0,79,0.00,,,0.00,Wunderground v.1.15,2013-06-21 13:11:00,
2013-06-21 09:12:00,71.9,63.9,30.31,West,264,3.0,5.0,76,0.00,,,0.00,Wunderground v.1.15,2013-06-21 13:12:00,
2013-06-21 09:14:00,71.9,64.3,30.31,WSW,248,1.0,5.0,77,0.00,,,0.00,Wunderground v.1.15,2013-06-21 13:14:00,
2013-06-21 09:15:00,71.9,64.7,30.31,West,267,1.0,5.0,78,0.00,,,0.00,Wunderground v.1.15,2013-06-21 13:15:00,
2013-06-21 09:16:00,71.9,64.7,30.31,West,264,0.0,5.0,78,0.00,,,0.00,Wunderground v.1.15,2013-06-21 13:16:00,
2013-06-21 09:17:00,72.0,64.0,30.31,ESE,122,1.0,7.0,76,0.00,,,0.00,Wunderground v.1.15,2013-06-21 13:17:00,
2013-06-21 09:19:00,72.2,63.4,30.31,West,260,2.0,7.0,74,0.00,,,0.00,Wunderground v.1.15,2013-06-21 13:19:00,
2013-06-21 09:20:00,72.3,63.2,30.31,NNW,339,1.0,6.0,73,0.00,,,0.00,Wunderground v.1.15,2013-06-21 13:20:00,
2013-06-21 09:21:00,72.4,63.3,30.31,NNW,339,0.0,6.0,73,0.00,,,0.00,Wunderground v.1.15,2013-06-21 13:21:00,
2013-06-21 09:22:00,72.6,64.2,30.31,WSW,250,5.0,6.0,75,0.00,,,0.00,Wunderground v.1.15,2013-06-21 13:22:00,
2013-06-21 09:24:00,72.8,63.6,30.31,SW,233,3.0,7.0,73,0.00,,,0.00,Wunderground v.1.15,2013-06-21 13:24:00,
2013-06-21 09:25:00,72.9,63.7,30.31,WSW,240,2.0,7.0,73,0.00,,,0.00,Wunderground v.1.15,2013-06-21 13:25:00,
2013-06-21 09:26:00,73.0,63.4,30.32,SW,218,2.0,7.0,72,0.00,,,0.00,Wunderground v.1.15,2013-06-21 13:26:00,
2013-06-21 09:27:00,73.1,63.9,30.31,SW,218,1.0,7.0,73,0.00,,,0.00,Wunderground v.1.15,2013-06-21 13:27:00,
2013-06-21 09:28:00,73.1,63.9,30.31,SSW,205,2.0,7.0,73,0.00,,,0.00,Wunderground v.1.15,2013-06-21 13:28:00,
2013-06-21 09:30:00,73.4,63.8,30.31,WSW,253,1.0,2.0,72,0.00,,,0.00,Wunderground v.1.15,2013-06-21 13:30:00,
2013-06-21 09:31:00,73.6,64.8,30.31,ESE,102,1.0,2.0,74,0.00,,,0.00,Wunderground v.1.15,2013-06-21 13:31:00,
2013-06-21 09:33:00,73.8,63.8,30.31,WSW,238,6.0,7.0,71,0.00,,,0.00,Wunderground v.1.15,2013-06-21 13:33:00,
2013-06-21 09:35:00,73.7,64.1,30.31,SW,221,0.0,7.0,72,0.00,,,0.00,Wunderground v.1.15,2013-06-21 13:35:00,
2013-06-21 09:36:00,73.7,64.5,30.31,West,274,2.0,7.0,73,0.00,,,0.00,Wunderground v.1.15,2013-06-21 13:36:00,
2013-06-21 09:37:00,73.7,63.7,30.31,SSW,212,4.0,7.0,71,0.00,,,0.00,Wunderground v.1.15,2013-06-21 13:37:00,
2013-06-21 09:38:00,73.6,63.6,30.31,SSW,212,4.0,7.0,71,0.00,,,0.00,Wunderground v.1.15,2013-06-21 13:38:00,
2013-06-21 09:40:00,73.5,63.5,30.31,West,270,3.0,5.0,71,0.00,,,0.00,Wunderground v.1.15,2013-06-21 13:40:00,
2013-06-21 09:41:00,73.5,63.9,30.31,WSW,240,5.0,6.0,72,0.00,,,0.00,Wunderground v.1.15,2013-06-21 13:41:00,
2013-06-21 09:42:00,73.4,63.8,30.31,SW,233,5.0,6.0,72,0.00,,,0.00,Wunderground v.1.15,2013-06-21 13:42:00,
2013-06-21 09:43:00,73.4,64.2,30.31,SSE,150,1.0,7.0,73,0.00,,,0.00,Wunderground v.1.15,2013-06-21 13:43:00,
2013-06-21 09:44:00,73.4,64.2,30.31,East,96,1.0,7.0,73,0.00,,,0.00,Wunderground v.1.15,2013-06-21 13:44:00,
2013-06-21 09:45:00,73.5,64.3,30.31,WSW,253,2.0,7.0,73,0.00,,,0.00,Wunderground v.1.15,2013-06-21 13:45:00,
2013-06-21 09:46:00,73.6,64.4,30.31,SW,235,0.0,7.0,73,0.00,,,0.00,Wunderground v.1.15,2013-06-21 13:46:00,
2013-06-21 09:47:00,73.7,64.9,30.31,SSW,195,4.0,7.0,74,0.00,,,0.00,Wunderground v.1.15,2013-06-21 13:47:00,
2013-06-21 09:48:00,73.9,64.7,30.31,SE,136,1.0,7.0,73,0.00,,,0.00,Wunderground v.1.15,2013-06-21 13:48:00,
2013-06-21 09:49:00,74.0,64.0,30.31,WSW,246,4.0,4.0,71,0.00,,,0.00,Wunderground v.1.15,2013-06-21 13:49:00,
2013-06-21 09:50:00,74.0,63.2,30.31,NW,325,1.0,5.0,69,0.00,,,0.00,Wunderground v.1.15,2013-06-21 13:50:00,
2013-06-21 09:51:00,74.1,63.7,30.31,West,263,1.0,5.0,70,0.00,,,0.00,Wunderground v.1.15,2013-06-21 13:51:00,
2013-06-21 09:52:00,74.1,64.1,30.31,East,87,1.0,5.0,71,0.00,,,0.00,Wunderground v.1.15,2013-06-21 13:52:00,
2013-06-21 09:54:00,74.2,63.8,30.31,WSW,240,1.0,5.0,70,0.00,,,0.00,Wunderground v.1.15,2013-06-21 13:54:00,
2013-06-21 09:55:00,74.3,64.3,30.31,NE,34,3.0,5.0,71,0.00,,,0.00,Wunderground v.1.15,2013-06-21 13:55:00,
2013-06-21 09:56:00,74.5,64.9,30.31,SE,145,1.0,5.0,72,0.00,,,0.00,Wunderground v.1.15,2013-06-21 13:56:00,
2013-06-21 09:57:00,74.6,64.6,30.31,NE,49,2.0,5.0,71,0.00,,,0.00,Wunderground v.1.15,2013-06-21 13:57:00,
2013-06-21 09:59:00,74.8,64.8,30.31,SW,215,0.0,5.0,71,0.00,,,0.00,Wunderground v.1.15,2013-06-21 13:59:00,
2013-06-21 10:00:00,74.8,64.8,30.31,SW,215,0.0,1.0,71,0.00,,,0.00,Wunderground v.1.15,2013-06-21 14:00:00,
2013-06-21 10:01:00,74.9,64.5,30.31,SW,235,3.0,3.0,70,0.00,,,0.00,Wunderground v.1.15,2013-06-21 14:01:00,
2013-06-21 10:02:00,74.9,64.0,30.31,WSW,238,2.0,3.0,69,0.00,,,0.00,Wunderground v.1.15,2013-06-21 14:02:00,
2013-06-21 10:04:00,74.9,64.9,30.31,ENE,77,0.0,3.0,71,0.00,,,0.00,Wunderground v.1.15,2013-06-21 14:04:00,
2013-06-21 10:05:00,74.9,64.9,30.31,NNE,14,1.0,3.0,71,0.00,,,0.00,Wunderground v.1.15,2013-06-21 14:05:00,
2013-06-21 10:08:00,75.3,64.8,30.31,WSW,240,1.0,3.0,70,0.00,,,0.00,Wunderground v.1.15,2013-06-21 14:08:00,
2013-06-21 10:09:00,75.2,64.3,30.31,WSW,249,3.0,3.0,69,0.00,,,0.00,Wunderground v.1.15,2013-06-21 14:09:00,
2013-06-21 10:11:00,75.1,64.6,30.31,WSW,248,0.0,3.0,70,0.00,,,0.00,Wunderground v.1.15,2013-06-21 14:11:00,
2013-06-21 10:13:00,75.4,65.3,30.31,SSW,196,2.0,7.0,71,0.00,,,0.00,Wunderground v.1.15,2013-06-21 14:13:00,
2013-06-21 10:14:00,75.5,65.4,30.31,South,176,3.0,7.0,71,0.00,,,0.00,Wunderground v.1.15,2013-06-21 14:14:00,
2013-06-21 10:16:00,75.5,64.2,30.31,South,173,3.0,7.0,68,0.00,,,0.00,Wunderground v.1.15,2013-06-21 14:16:00,
2013-06-21 10:19:00,75.1,64.2,30.31,WSW,245,3.0,7.0,69,0.00,,,0.00,Wunderground v.1.15,2013-06-21 14:19:00,
2013-06-21 10:21:00,74.8,63.9,30.31,WSW,240,2.0,5.0,69,0.00,,,0.00,Wunderground v.1.15,2013-06-21 14:21:00,
2013-06-21 10:24:00,74.7,64.7,30.31,SSW,210,1.0,5.0,71,0.00,,,0.00,Wunderground v.1.15,2013-06-21 14:24:00,
2013-06-21 10:25:00,74.8,64.8,30.31,WSW,240,9.0,9.0,71,0.00,,,0.00,Wunderground v.1.15,2013-06-21 14:25:00,
2013-06-21 10:26:00,74.9,64.9,30.31,WSW,243,3.0,9.0,71,0.00,,,0.00,Wunderground v.1.15,2013-06-21 14:26:00,
2013-06-21 10:29:00,75.3,64.8,30.31,WSW,239,1.0,9.0,70,0.00,,,0.00,Wunderground v.1.15,2013-06-21 14:29:00,
2013-06-21 10:30:00,75.5,65.4,30.31,SW,215,3.0,3.0,71,0.00,,,0.00,Wunderground v.1.15,2013-06-21 14:30:00,
2013-06-21 10:31:00,75.5,64.2,30.31,SW,224,3.0,5.0,68,0.00,,,0.00,Wunderground v.1.15,2013-06-21 14:31:00,
2013-06-21 10:34:00,75.4,64.1,30.31,SW,235,5.0,8.0,68,0.00,,,0.00,Wunderground v.1.15,2013-06-21 14:34:00,
2013-06-21 10:35:00,75.3,63.2,30.31,SW,227,4.0,8.0,66,0.00,,,0.00,Wunderground v.1.15,2013-06-21 14:35:00,
2013-06-21 10:36:00,75.3,64.0,30.31,WSW,240,1.0,8.0,68,0.00,,,0.00,Wunderground v.1.15,2013-06-21 14:36:00,
2013-06-21 10:37:00,75.3,64.8,30.31,ESE,108,1.0,8.0,70,0.00,,,0.00,Wunderground v.1.15,2013-06-21 14:37:00,
2013-06-21 10:39:00,75.6,64.3,30.31,NNE,27,0.0,8.0,68,0.00,,,0.00,Wunderground v.1.15,2013-06-21 14:39:00,
2013-06-21 10:40:00,75.7,64.4,30.31,WSW,248,1.0,3.0,68,0.00,,,0.00,Wunderground v.1.15,2013-06-21 14:40:00,
2013-06-21 10:42:00,75.8,64.1,30.31,WSW,250,2.0,5.0,67,0.00,,,0.00,Wunderground v.1.15,2013-06-21 14:42:00,
2013-06-21 10:43:00,75.8,64.1,30.31,West,264,2.0,6.0,67,0.00,,,0.00,Wunderground v.1.15,2013-06-21 14:43:00,
2013-06-21 10:44:00,75.8,63.2,30.31,SSE,156,5.0,7.0,65,0.00,,,0.00,Wunderground v.1.15,2013-06-21 14:44:00,
2013-06-21 10:46:00,75.8,63.2,30.31,WSW,252,5.0,7.0,65,0.00,,,0.00,Wunderground v.1.15,2013-06-21 14:46:00,
2013-06-21 10:47:00,75.8,63.6,30.31,WSW,256,2.0,7.0,66,0.00,,,0.00,Wunderground v.1.15,2013-06-21 14:47:00,
2013-06-21 10:48:00,75.7,63.5,30.31,WSW,240,2.0,7.0,66,0.00,,,0.00,Wunderground v.1.15,2013-06-21 14:48:00,
2013-06-21 10:50:00,75.9,64.6,30.31,WSW,238,4.0,4.0,68,0.00,,,0.00,Wunderground v.1.15,2013-06-21 14:50:00,
2013-06-21 10:51:00,75.9,63.3,30.31,WSW,238,5.0,6.0,65,0.00,,,0.00,Wunderground v.1.15,2013-06-21 14:51:00,
2013-06-21 10:52:00,75.8,64.1,30.31,SW,227,0.0,6.0,67,0.00,,,0.00,Wunderground v.1.15,2013-06-21 14:52:00,
2013-06-21 10:53:00,75.8,64.1,30.31,ENE,58,1.0,6.0,67,0.00,,,0.00,Wunderground v.1.15,2013-06-21 14:53:00,
2013-06-21 10:55:00,75.9,64.2,30.31,WSW,253,1.0,6.0,67,0.00,,,0.00,Wunderground v.1.15,2013-06-21 14:55:00,
2013-06-21 10:56:00,76.0,64.2,30.31,WSW,238,3.0,6.0,67,0.00,,,0.00,Wunderground v.1.15,2013-06-21 14:56:00,
2013-06-21 10:57:00,76.0,63.4,30.31,SW,215,1.0,6.0,65,0.00,,,0.00,Wunderground v.1.15,2013-06-21 14:57:00,
2013-06-21 10:58:00,76.0,63.4,30.31,SW,226,1.0,6.0,65,0.00,,,0.00,Wunderground v.1.15,2013-06-21 14:58:00,
2013-06-21 11:00:00,76.1,65.2,30.31,SE,128,0.0,3.0,69,0.00,,,0.00,Wunderground v.1.15,2013-06-21 15:00:00,
2013-06-21 11:01:00,76.3,65.4,30.31,East,86,1.0,3.0,69,0.00,,,0.00,Wunderground v.1.15,2013-06-21 15:01:00,
2013-06-21 11:02:00,76.7,65.8,30.31,WSW,243,3.0,4.0,69,0.00,,,0.00,Wunderground v.1.15,2013-06-21 15:02:00,
2013-06-21 11:03:00,76.8,65.9,30.31,WSW,255,3.0,5.0,69,0.00,,,0.00,Wunderground v.1.15,2013-06-21 15:03:00,
2013-06-21 11:05:00,76.8,64.1,30.31,SW,222,2.0,6.0,65,0.00,,,0.00,Wunderground v.1.15,2013-06-21 15:05:00,
2013-06-21 11:06:00,76.7,65.3,30.31,SSW,193,0.0,6.0,68,0.00,,,0.00,Wunderground v.1.15,2013-06-21 15:06:00,
2013-06-21 11:08:00,76.9,65.1,30.31,SE,126,1.0,6.0,67,0.00,,,0.00,Wunderground v.1.15,2013-06-21 15:08:00,
2013-06-21 11:11:00,77.4,65.6,30.31,NNW,347,4.0,4.0,67,0.00,,,0.00,Wunderground v.1.15,2013-06-21 15:11:00,
2013-06-21 11:12:00,77.6,65.3,30.31,ESE,117,1.0,4.0,66,0.00,,,0.00,Wunderground v.1.15,2013-06-21 15:12:00,
2013-06-21 11:13:00,77.7,65.9,30.31,NE,39,2.0,4.0,67,0.00,,,0.00,Wunderground v.1.15,2013-06-21 15:13:00,
2013-06-21 11:16:00,78.1,65.8,30.31,SW,225,2.0,4.0,66,0.00,,,0.00,Wunderground v.1.15,2013-06-21 15:16:00,
2013-06-21 11:17:00,78.1,65.4,30.31,SSW,212,4.0,5.0,65,0.00,,,0.00,Wunderground v.1.15,2013-06-21 15:17:00,
2013-06-21 11:18:00,78.1,65.8,30.31,SSW,197,0.0,5.0,66,0.00,,,0.00,Wunderground v.1.15,2013-06-21 15:18:00,
2013-06-21 11:19:00,78.1,65.4,30.31,East,92,2.0,5.0,65,0.00,,,0.00,Wunderground v.1.15,2013-06-21 15:19:00,
2013-06-21 11:22:00,78.5,66.6,30.31,NNE,21,3.0,3.0,67,0.00,,,0.00,Wunderground v.1.15,2013-06-21 15:22:00,
2013-06-21 11:23:00,78.7,65.9,30.31,SW,229,5.0,5.0,65,0.00,,,0.00,Wunderground v.1.15,2013-06-21 15:23:00,
2013-06-21 11:24:00,78.7,65.5,30.31,WSW,238,5.0,5.0,64,0.00,,,0.00,Wunderground v.1.15,2013-06-21 15:24:00,
2013-06-21 11:27:00,78.6,65.4,30.31,WSW,246,2.0,8.0,64,0.00,,,0.00,Wunderground v.1.15,2013-06-21 15:27:00,
2013-06-21 11:29:00,78.4,65.7,30.31,SSW,204,6.0,8.0,65,0.00,,,0.00,Wunderground v.1.15,2013-06-21 15:29:00,
2013-06-21 11:32:00,78.3,65.1,30.31,SSE,155,1.0,7.0,64,0.00,,,0.00,Wunderground v.1.15,2013-06-21 15:32:00,
2013-06-21 11:33:00,78.3,65.6,30.31,SSE,156,2.0,7.0,65,0.00,,,0.00,Wunderground v.1.15,2013-06-21 15:33:00,
2013-06-21 11:34:00,78.3,65.1,30.31,SSE,162,4.0,7.0,64,0.00,,,0.00,Wunderground v.1.15,2013-06-21 15:34:00,
2013-06-21 11:37:00,78.5,65.8,30.31,NNE,25,0.0,7.0,65,0.00,,,0.00,Wunderground v.1.15,2013-06-21 15:37:00,
2013-06-21 11:38:00,78.6,66.7,30.31,SW,235,3.0,7.0,67,0.00,,,0.00,Wunderground v.1.15,2013-06-21 15:38:00,
2013-06-21 11:39:00,78.5,65.3,30.31,SSW,212,1.0,7.0,64,0.00,,,0.00,Wunderground v.1.15,2013-06-21 15:39:00,
2013-06-21 11:40:00,78.5,65.3,30.31,SW,235,3.0,3.0,64,0.00,,,0.00,Wunderground v.1.15,2013-06-21 15:40:00,
2013-06-21 11:41:00,78.6,66.3,30.31,SSW,207,3.0,3.0,66,0.00,,,0.00,Wunderground v.1.15,2013-06-21 15:41:00,
2013-06-21 11:42:00,78.7,65.0,30.31,SSW,200,5.0,7.0,63,0.00,,,0.00,Wunderground v.1.15,2013-06-21 15:42:00,
2013-06-21 11:43:00,78.7,64.6,30.31,South,179,3.0,7.0,62,0.00,,,0.00,Wunderground v.1.15,2013-06-21 15:43:00,
2013-06-21 11:44:00,78.6,64.9,30.31,South,174,2.0,7.0,63,0.00,,,0.00,Wunderground v.1.15,2013-06-21 15:44:00,
2013-06-21 11:45:00,78.7,65.0,30.31,South,172,2.0,7.0,63,0.00,,,0.00,Wunderground v.1.15,2013-06-21 15:45:00,
2013-06-21 11:46:00,78.7,65.0,30.31,SSE,153,2.0,7.0,63,0.00,,,0.00,Wunderground v.1.15,2013-06-21 15:46:00,
2013-06-21 11:48:00,78.9,66.6,30.31,NNE,19,4.0,7.0,66,0.00,,,0.00,Wunderground v.1.15,2013-06-21 15:48:00,
2013-06-21 11:50:00,79.1,66.8,30.31,WSW,240,1.0,3.0,66,0.00,,,0.00,Wunderground v.1.15,2013-06-21 15:50:00,
2013-06-21 11:51:00,79.1,66.3,30.31,West,259,4.0,8.0,65,0.00,,,0.00,Wunderground v.1.15,2013-06-21 15:51:00,
2013-06-21 11:53:00,78.9,65.2,30.31,WSW,255,1.0,8.0,63,0.00,,,0.00,Wunderground v.1.15,2013-06-21 15:53:00,
2013-06-21 11:55:00,78.8,65.1,30.31,SW,229,1.0,8.0,63,0.00,,,0.00,Wunderground v.1.15,2013-06-21 15:55:00,
2013-06-21 11:56:00,78.9,65.2,30.31,WSW,256,2.0,8.0,63,0.00,,,0.00,Wunderground v.1.15,2013-06-21 15:56:00,
2013-06-21 11:58:00,79.1,65.9,30.31,South,188,4.0,8.0,64,0.00,,,0.00,Wunderground v.1.15,2013-06-21 15:58:00,
2013-06-21 11:59:00,79.1,65.4,30.31,SSE,151,2.0,8.0,63,0.00,,,0.00,Wunderground v.1.15,2013-06-21 15:59:00,
2013-06-21 12:00:00,79.1,65.4,30.31,SSE,166,3.0,3.0,63,0.00,,,0.00,Wunderground v.1.15,2013-06-21 16:00:00,
2013-06-21 12:01:00,79.0,64.9,30.31,South,174,1.0,3.0,62,0.00,,,0.00,Wunderground v.1.15,2013-06-21 16:01:00,
2013-06-21 12:03:00,78.9,65.7,30.31,South,190,1.0,3.0,64,0.00,,,0.00,Wunderground v.1.15,2013-06-21 16:03:00,
2013-06-21 12:04:00,78.9,65.7,30.31,SSW,212,2.0,3.0,64,0.00,,,0.00,Wunderground v.1.15,2013-06-21 16:04:00,
2013-06-21 12:05:00,78.8,65.1,30.31,SSW,194,2.0,5.0,63,0.00,,,0.00,Wunderground v.1.15,2013-06-21 16:05:00,
2013-06-21 12:06:00,78.8,65.6,30.31,SSW,194,0.0,5.0,64,0.00,,,0.00,Wunderground v.1.15,2013-06-21 16:06:00,
2013-06-21 12:08:00,78.9,65.7,30.30,ENE,58,1.0,5.0,64,0.00,,,0.00,Wunderground v.1.15,2013-06-21 16:08:00,
2013-06-21 12:09:00,78.9,66.6,30.30,East,92,3.0,5.0,66,0.00,,,0.00,Wunderground v.1.15,2013-06-21 16:09:00,
2013-06-21 12:11:00,78.6,64.9,30.31,SE,128,2.0,3.0,63,0.00,,,0.00,Wunderground v.1.15,2013-06-21 16:11:00,
2013-06-21 12:12:00,78.7,65.0,30.31,SE,142,0.0,3.0,63,0.00,,,0.00,Wunderground v.1.15,2013-06-21 16:12:00,
2013-06-21 12:14:00,78.9,65.7,30.31,NE,46,0.0,3.0,64,0.00,,,0.00,Wunderground v.1.15,2013-06-21 16:14:00,
2013-06-21 12:15:00,79.1,65.9,30.30,NNE,18,3.0,3.0,64,0.00,,,0.00,Wunderground v.1.15,2013-06-21 16:15:00,
2013-06-21 12:16:00,79.3,67.4,30.30,WNW,288,1.0,4.0,67,0.00,,,0.00,Wunderground v.1.15,2013-06-21 16:16:00,
2013-06-21 12:17:00,79.6,66.3,30.31,NNE,22,2.0,6.0,64,0.00,,,0.00,Wunderground v.1.15,2013-06-21 16:17:00,
2013-06-21 12:19:00,79.8,67.0,30.30,SSE,159,1.0,6.0,65,0.00,,,0.00,Wunderground v.1.15,2013-06-21 16:19:00,
2013-06-21 12:20:00,80.0,67.6,30.31,North,5,2.0,4.0,66,0.00,,,0.00,Wunderground v.1.15,2013-06-21 16:20:00,
2013-06-21 12:22:00,80.2,66.5,30.30,NW,308,3.0,6.0,63,0.00,,,0.00,Wunderground v.1.15,2013-06-21 16:22:00,
2013-06-21 12:24:00,80.3,65.6,30.30,SW,232,3.0,6.0,61,0.00,,,0.00,Wunderground v.1.15,2013-06-21 16:24:00,
2013-06-21 12:25:00,80.3,65.1,30.30,NNE,33,1.0,6.0,60,0.00,,,0.00,Wunderground v.1.15,2013-06-21 16:25:00,
2013-06-21 12:27:00,80.5,66.3,30.30,NW,322,3.0,6.0,62,0.00,,,0.00,Wunderground v.1.15,2013-06-21 16:27:00,
2013-06-21 12:29:00,80.7,66.9,30.30,WNW,302,1.0,6.0,63,0.00,,,0.00,Wunderground v.1.15,2013-06-21 16:29:00,
2013-06-21 12:30:00,80.7,66.5,30.30,West,270,1.0,2.0,62,0.00,,,0.00,Wunderground v.1.15,2013-06-21 16:30:00,
2013-06-21 12:32:00,81.2,67.4,30.30,South,191,2.0,3.0,63,0.00,,,0.00,Wunderground v.1.15,2013-06-21 16:32:00,
2013-06-21 12:33:00,81.3,67.5,30.30,SW,221,2.0,3.0,63,0.00,,,0.00,Wunderground v.1.15,2013-06-21 16:33:00,
2013-06-21 12:34:00,81.5,66.8,30.30,East,79,2.0,3.0,61,0.00,,,0.00,Wunderground v.1.15,2013-06-21 16:34:00,
2013-06-21 12:35:00,81.5,66.8,30.30,SSE,150,3.0,3.0,61,0.00,,,0.00,Wunderground v.1.15,2013-06-21 16:35:00,
2013-06-21 12:36:00,81.5,67.2,30.30,South,169,1.0,3.0,62,0.00,,,0.00,Wunderground v.1.15,2013-06-21 16:36:00,
2013-06-21 12:38:00,81.6,67.3,30.30,SW,232,0.0,3.0,62,0.00,,,0.00,Wunderground v.1.15,2013-06-21 16:38:00,
2013-06-21 12:39:00,81.5,67.2,30.30,WSW,240,4.0,4.0,62,0.00,,,0.00,Wunderground v.1.15,2013-06-21 16:39:00,
2013-06-21 12:41:00,81.0,65.8,30.30,West,260,0.0,1.0,60,0.00,,,0.00,Wunderground v.1.15,2013-06-21 16:41:00,
2013-06-21 12:42:00,80.9,65.7,30.30,SSW,196,2.0,2.0,60,0.00,,,0.00,Wunderground v.1.15,2013-06-21 16:42:00,
2013-06-21 12:44:00,80.7,66.0,30.30,SW,215,1.0,3.0,61,0.00,,,0.00,Wunderground v.1.15,2013-06-21 16:44:00,
2013-06-21 12:46:00,80.8,66.6,30.30,South,170,3.0,5.0,62,0.00,,,0.00,Wunderground v.1.15,2013-06-21 16:46:00,
2013-06-21 12:47:00,80.8,66.6,30.30,SW,215,4.0,5.0,62,0.00,,,0.00,Wunderground v.1.15,2013-06-21 16:47:00,
2013-06-21 12:49:00,80.9,66.7,30.30,SW,224,4.0,5.0,62,0.00,,,0.00,Wunderground v.1.15,2013-06-21 16:49:00,
2013-06-21 12:51:00,80.7,66.9,30.30,North,358,0.0,5.0,63,0.00,,,0.00,Wunderground v.1.15,2013-06-21 16:51:00,
2013-06-21 12:52:00,80.8,67.5,30.30,West,264,0.0,5.0,64,0.00,,,0.00,Wunderground v.1.15,2013-06-21 16:52:00,
2013-06-21 12:54:00,81.1,66.4,30.29,NNE,32,2.0,5.0,61,0.00,,,0.00,Wunderground v.1.15,2013-06-21 16:54:00,
2013-06-21 12:56:00,81.3,67.5,30.30,SSE,162,3.0,5.0,63,0.00,,,0.00,Wunderground v.1.15,2013-06-21 16:56:00,
2013-06-21 12:57:00,81.3,67.5,30.30,SW,232,3.0,5.0,63,0.00,,,0.00,Wunderground v.1.15,2013-06-21 16:57:00,
2013-06-21 13:01:00,81.2,64.5,30.29,SW,218,4.0,4.0,57,0.00,,,0.00,Wunderground v.1.15,2013-06-21 17:01:00,
2013-06-21 13:02:00,80.8,64.6,30.29,SSE,148,3.0,4.0,58,0.00,,,0.00,Wunderground v.1.15,2013-06-21 17:02:00,
2013-06-21 13:06:00,80.8,67.5,30.29,West,269,4.0,5.0,64,0.00,,,0.00,Wunderground v.1.15,2013-06-21 17:06:00,
2013-06-21 13:07:00,80.8,67.5,30.29,West,259,2.0,5.0,64,0.00,,,0.00,Wunderground v.1.15,2013-06-21 17:07:00,
2013-06-21 13:11:00,80.6,65.9,30.29,WSW,240,0.0,2.0,61,0.00,,,0.00,Wunderground v.1.15,2013-06-21 17:11:00,
2013-06-21 13:12:00,80.4,65.7,30.29,ESE,108,0.0,2.0,61,0.00,,,0.00,Wunderground v.1.15,2013-06-21 17:12:00,
2013-06-21 13:13:00,80.3,65.1,30.29,SW,231,2.0,2.0,60,0.00,,,0.00,Wunderground v.1.15,2013-06-21 17:13:00,
2013-06-21 13:14:00,80.3,65.1,30.29,SW,221,1.0,2.0,60,0.00,,,0.00,Wunderground v.1.15,2013-06-21 17:14:00,
2013-06-21 13:16:00,80.3,66.6,30.29,West,263,0.0,2.0,63,0.00,,,0.00,Wunderground v.1.15,2013-06-21 17:16:00,
2013-06-21 13:17:00,80.2,65.1,30.29,WSW,255,2.0,2.0,60,0.00,,,0.00,Wunderground v.1.15,2013-06-21 17:17:00,
2013-06-21 13:18:00,80.1,64.5,30.29,WSW,239,5.0,5.0,59,0.00,,,0.00,Wunderground v.1.15,2013-06-21 17:18:00,
2013-06-21 13:19:00,80.0,64.9,30.29,WSW,238,2.0,5.0,60,0.00,,,0.00,Wunderground v.1.15,2013-06-21 17:19:00,
2013-06-21 13:21:00,80.1,65.4,30.29,SW,226,2.0,4.0,61,0.00,,,0.00,Wunderground v.1.15,2013-06-21 17:21:00,
2013-06-21 13:23:00,80.3,66.1,30.29,WSW,243,1.0,4.0,62,0.00,,,0.00,Wunderground v.1.15,2013-06-21 17:23:00,
2013-06-21 13:24:00,80.5,65.8,30.29,NNE,27,1.0,4.0,61,0.00,,,0.00,Wunderground v.1.15,2013-06-21 17:24:00,
2013-06-21 13:27:00,81.2,66.5,30.28,WNW,300,1.0,4.0,61,0.00,,,0.00,Wunderground v.1.15,2013-06-21 17:27:00,
2013-06-21 13:28:00,81.2,66.5,30.28,North,4,1.0,4.0,61,0.00,,,0.00,Wunderground v.1.15,2013-06-21 17:28:00,
2013-06-21 13:29:00,81.8,65.6,30.28,SW,232,1.0,4.0,58,0.00,,,0.00,Wunderground v.1.15,2013-06-21 17:29:00,
2013-06-21 13:31:00,81.9,66.2,30.28,WSW,256,0.0,2.0,59,0.00,,,0.00,Wunderground v.1.15,2013-06-21 17:31:00,
2013-06-21 13:32:00,82.0,66.7,30.28,ESE,122,0.0,2.0,60,0.00,,,0.00,Wunderground v.1.15,2013-06-21 17:32:00,
2013-06-21 13:33:00,82.0,65.8,30.28,NNE,25,2.0,2.0,58,0.00,,,0.00,Wunderground v.1.15,2013-06-21 17:33:00,
2013-06-21 13:34:00,82.0,66.7,30.28,SSW,210,2.0,5.0,60,0.00,,,0.00,Wunderground v.1.15,2013-06-21 17:34:00,
2013-06-21 13:37:00,82.2,66.9,30.28,NNW,330,1.0,5.0,60,0.00,,,0.00,Wunderground v.1.15,2013-06-21 17:37:00,
2013-06-21 13:38:00,82.2,66.0,30.28,SW,221,3.0,5.0,58,0.00,,,0.00,Wunderground v.1.15,2013-06-21 17:38:00,
2013-06-21 13:43:00,81.6,66.4,30.28,SW,229,8.0,8.0,60,0.00,,,0.00,Wunderground v.1.15,2013-06-21 17:43:00,
2013-06-21 13:45:00,81.5,65.8,30.28,WSW,250,4.0,8.0,59,0.00,,,0.00,Wunderground v.1.15,2013-06-21 17:45:00,
2013-06-21 13:46:00,81.4,65.7,30.28,SW,235,0.0,8.0,59,0.00,,,0.00,Wunderground v.1.15,2013-06-21 17:46:00,
2013-06-21 13:51:00,81.2,65.0,30.28,WSW,257,5.0,6.0,58,0.00,,,0.00,Wunderground v.1.15,2013-06-21 17:51:00,
2013-06-21 13:52:00,81.1,65.4,30.28,WSW,240,3.0,6.0,59,0.00,,,0.00,Wunderground v.1.15,2013-06-21 17:52:00,
2013-06-21 13:56:00,81.7,65.0,30.28,West,281,1.0,6.0,57,0.00,,,0.00,Wunderground v.1.15,2013-06-21 17:56:00,
2013-06-21 13:57:00,81.8,66.1,30.28,SSE,149,0.0,6.0,59,0.00,,,0.00,Wunderground v.1.15,2013-06-21 17:57:00,
2013-06-21 13:58:00,81.9,66.2,30.28,WSW,250,2.0,6.0,59,0.00,,,0.00,Wunderground v.1.15,2013-06-21 17:58:00,
2013-06-21 14:01:00,82.0,66.3,30.28,WSW,243,1.0,2.0,59,0.00,,,0.00,Wunderground v.1.15,2013-06-21 18:01:00,
2013-06-21 14:02:00,82.2,66.4,30.27,NE,38,1.0,2.0,59,0.00,,,0.00,Wunderground v.1.15,2013-06-21 18:02:00,
2013-06-21 14:03:00,82.2,66.0,30.27,West,281,1.0,2.0,58,0.00,,,0.00,Wunderground v.1.15,2013-06-21 18:03:00,
2013-06-21 14:07:00,82.8,67.5,30.27,ENE,58,2.0,3.0,60,0.00,,,0.00,Wunderground v.1.15,2013-06-21 18:07:00,
2013-06-21 14:08:00,83.1,67.8,30.27,NW,315,1.0,5.0,60,0.00,,,0.00,Wunderground v.1.15,2013-06-21 18:08:00,
2013-06-21 14:09:00,83.1,66.3,30.27,NNW,330,3.0,5.0,57,0.00,,,0.00,Wunderground v.1.15,2013-06-21 18:09:00,
2013-06-21 14:13:00,82.7,64.9,30.27,SSE,155,2.0,4.0,55,0.00,,,0.00,Wunderground v.1.15,2013-06-21 18:13:00,
2013-06-21 14:17:00,82.5,64.2,30.27,WSW,257,4.0,4.0,54,0.00,,,0.00,Wunderground v.1.15,2013-06-21 18:17:00,
2013-06-21 14:18:00,82.1,64.3,30.27,SW,224,1.0,6.0,55,0.00,,,0.00,Wunderground v.1.15,2013-06-21 18:18:00,
2013-06-21 14:19:00,81.9,64.7,30.27,WSW,242,4.0,6.0,56,0.00,,,0.00,Wunderground v.1.15,2013-06-21 18:19:00,
2013-06-21 14:22:00,81.9,65.2,30.27,South,174,4.0,4.0,57,0.00,,,0.00,Wunderground v.1.15,2013-06-21 18:22:00,
2013-06-21 14:23:00,82.0,65.3,30.27,SW,225,4.0,5.0,57,0.00,,,0.00,Wunderground v.1.15,2013-06-21 18:23:00,
2013-06-21 14:24:00,82.0,65.3,30.27,West,267,2.0,5.0,57,0.00,,,0.00,Wunderground v.1.15,2013-06-21 18:24:00,
2013-06-21 14:28:00,81.7,64.0,30.27,WSW,255,5.0,8.0,55,0.00,,,0.00,Wunderground v.1.15,2013-06-21 18:28:00,
2013-06-21 14:29:00,81.6,63.9,30.27,SW,218,2.0,8.0,55,0.00,,,0.00,Wunderground v.1.15,2013-06-21 18:29:00,
2013-06-21 14:33:00,81.8,65.6,30.27,WSW,252,0.0,4.0,58,0.00,,,0.00,Wunderground v.1.15,2013-06-21 18:33:00,
2013-06-21 14:34:00,81.9,65.2,30.27,SSE,165,6.0,6.0,57,0.00,,,0.00,Wunderground v.1.15,2013-06-21 18:34:00,
2013-06-21 14:39:00,82.1,66.4,30.26,WSW,258,1.0,6.0,59,0.00,,,0.00,Wunderground v.1.15,2013-06-21 18:39:00,
2013-06-21 14:40:00,82.1,65.9,30.26,NE,42,0.0,2.0,58,0.00,,,0.00,Wunderground v.1.15,2013-06-21 18:40:00,
2013-06-21 14:44:00,82.8,65.0,30.26,SW,229,1.0,3.0,55,0.00,,,0.00,Wunderground v.1.15,2013-06-21 18:44:00,
2013-06-21 14:45:00,82.8,64.5,30.26,WSW,238,2.0,3.0,54,0.00,,,0.00,Wunderground v.1.15,2013-06-21 18:45:00,
2013-06-21 14:50:00,82.6,64.3,30.26,SSW,204,2.0,5.0,54,0.00,,,0.00,Wunderground v.1.15,2013-06-21 18:50:00,
2013-06-21 14:51:00,82.6,64.8,30.26,SSE,166,0.0,5.0,55,0.00,,,0.00,Wunderground v.1.15,2013-06-21 18:51:00,
2013-06-21 14:55:00,82.8,65.0,30.26,NNW,327,4.0,6.0,55,0.00,,,0.00,Wunderground v.1.15,2013-06-21 18:55:00,
2013-06-21 14:56:00,82.8,66.0,30.25,NNE,26,2.0,6.0,57,0.00,,,0.00,Wunderground v.1.15,2013-06-21 18:56:00,
2013-06-21 15:01:00,83.4,65.5,30.25,North,359,2.0,3.0,55,0.00,,,0.00,Wunderground v.1.15,2013-06-21 19:01:00,
2013-06-21 15:02:00,83.5,65.1,30.25,NW,314,1.0,3.0,54,0.00,,,0.00,Wunderground v.1.15,2013-06-21 19:02:00,
2013-06-21 15:06:00,83.7,65.3,30.25,West,269,0.0,8.0,54,0.00,,,0.00,Wunderground v.1.15,2013-06-21 19:06:00,
2013-06-21 15:07:00,83.7,65.3,30.25,WSW,243,2.0,8.0,54,0.00,,,0.00,Wunderground v.1.15,2013-06-21 19:07:00,
2013-06-21 15:11:00,84.1,64.0,30.25,SW,221,2.0,7.0,51,0.00,,,0.00,Wunderground v.1.15,2013-06-21 19:11:00,
2013-06-21 15:12:00,84.0,63.9,30.25,SW,218,4.0,7.0,51,0.00,,,0.00,Wunderground v.1.15,2013-06-21 19:12:00,
2013-06-21 15:14:00,83.9,63.8,30.25,WSW,242,3.0,7.0,51,0.00,,,0.00,Wunderground v.1.15,2013-06-21 19:14:00,
2013-06-21 15:17:00,83.4,63.9,30.25,WSW,257,1.0,9.0,52,0.00,,,0.00,Wunderground v.1.15,2013-06-21 19:17:00,
2013-06-21 15:18:00,83.4,65.5,30.25,WSW,240,4.0,9.0,55,0.00,,,0.00,Wunderground v.1.15,2013-06-21 19:18:00,
2013-06-21 15:19:00,83.4,65.5,30.25,South,180,3.0,9.0,55,0.00,,,0.00,Wunderground v.1.15,2013-06-21 19:19:00,
2013-06-21 15:20:00,83.6,64.7,30.25,SSW,205,1.0,3.0,53,0.00,,,0.00,Wunderground v.1.15,2013-06-21 19:20:00,
2013-06-21 15:21:00,83.7,64.8,30.25,West,269,1.0,4.0,53,0.00,,,0.00,Wunderground v.1.15,2013-06-21 19:21:00,
2013-06-21 15:22:00,83.8,64.8,30.25,East,79,2.0,4.0,53,0.00,,,0.00,Wunderground v.1.15,2013-06-21 19:22:00,
2013-06-21 15:23:00,83.9,64.4,30.25,ENE,64,1.0,4.0,52,0.00,,,0.00,Wunderground v.1.15,2013-06-21 19:23:00,
2013-06-21 15:24:00,84.0,65.6,30.25,WSW,238,1.0,4.0,54,0.00,,,0.00,Wunderground v.1.15,2013-06-21 19:24:00,
2013-06-21 15:25:00,84.1,64.6,30.25,WSW,238,4.0,4.0,52,0.00,,,0.00,Wunderground v.1.15,2013-06-21 19:25:00,
2013-06-21 15:26:00,84.1,64.0,30.25,WNW,302,1.0,4.0,51,0.00,,,0.00,Wunderground v.1.15,2013-06-21 19:26:00,
2013-06-21 15:27:00,84.2,65.2,30.25,WSW,246,4.0,4.0,53,0.00,,,0.00,Wunderground v.1.15,2013-06-21 19:27:00,
2013-06-21 15:28:00,84.3,65.3,30.25,South,174,8.0,9.0,53,0.00,,,0.00,Wunderground v.1.15,2013-06-21 19:28:00,
2013-06-21 15:29:00,84.2,65.2,30.25,SE,135,4.0,9.0,53,0.00,,,0.00,Wunderground v.1.15,2013-06-21 19:29:00,
2013-06-21 15:30:00,84.1,62.9,30.25,SSE,166,3.0,5.0,49,0.00,,,0.00,Wunderground v.1.15,2013-06-21 19:30:00,
2013-06-21 15:31:00,84.0,63.4,30.24,WSW,248,1.0,5.0,50,0.00,,,0.00,Wunderground v.1.15,2013-06-21 19:31:00,
2013-06-21 15:32:00,84.0,63.9,30.24,West,260,0.0,5.0,51,0.00,,,0.00,Wunderground v.1.15,2013-06-21 19:32:00,
2013-06-21 15:33:00,84.1,64.6,30.24,NNW,343,2.0,5.0,52,0.00,,,0.00,Wunderground v.1.15,2013-06-21 19:33:00,
2013-06-21 15:35:00,84.2,65.2,30.24,South,172,4.0,5.0,53,0.00,,,0.00,Wunderground v.1.15,2013-06-21 19:35:00,
2013-06-21 15:36:00,84.3,64.2,30.24,WNW,300,2.0,5.0,51,0.00,,,0.00,Wunderground v.1.15,2013-06-21 19:36:00,
2013-06-21 15:38:00,84.4,64.3,30.25,SW,215,2.0,5.0,51,0.00,,,0.00,Wunderground v.1.15,2013-06-21 19:38:00,
2013-06-21 15:40:00,84.3,63.6,30.25,SW,222,7.0,7.0,50,0.00,,,0.00,Wunderground v.1.15,2013-06-21 19:40:00,
2013-06-21 15:42:00,84.1,65.1,30.24,SW,233,2.0,10.0,53,0.00,,,0.00,Wunderground v.1.15,2013-06-21 19:42:00,
2013-06-21 15:44:00,84.2,64.7,30.25,East,81,0.0,10.0,52,0.00,,,0.00,Wunderground v.1.15,2013-06-21 19:44:00,
2013-06-21 15:45:00,84.3,65.8,30.25,SW,235,6.0,10.0,54,0.00,,,0.00,Wunderground v.1.15,2013-06-21 19:45:00,
2013-06-21 15:46:00,84.1,64.0,30.25,SW,215,3.0,10.0,51,0.00,,,0.00,Wunderground v.1.15,2013-06-21 19:46:00,
2013-06-21 15:47:00,84.0,63.9,30.24,SW,234,3.0,10.0,51,0.00,,,0.00,Wunderground v.1.15,2013-06-21 19:47:00,
2013-06-21 15:49:00,83.9,63.8,30.25,West,281,5.0,10.0,51,0.00,,,0.00,Wunderground v.1.15,2013-06-21 19:49:00,
2013-06-21 15:50:00,83.8,64.8,30.24,ESE,122,1.0,5.0,53,0.00,,,0.00,Wunderground v.1.15,2013-06-21 19:50:00,
2013-06-21 15:51:00,83.9,63.8,30.24,SE,143,1.0,5.0,51,0.00,,,0.00,Wunderground v.1.15,2013-06-21 19:51:00,
2013-06-21 15:52:00,83.9,64.4,30.24,WSW,248,4.0,5.0,52,0.00,,,0.00,Wunderground v.1.15,2013-06-21 19:52:00,
2013-06-21 15:54:00,83.9,63.8,30.24,South,181,4.0,7.0,51,0.00,,,0.00,Wunderground v.1.15,2013-06-21 19:54:00,
2013-06-21 15:55:00,83.9,62.7,30.24,WSW,245,10.0,10.0,49,0.00,,,0.00,Wunderground v.1.15,2013-06-21 19:55:00,
2013-06-21 15:56:00,83.8,63.7,30.24,SW,214,2.0,10.0,51,0.00,,,0.00,Wunderground v.1.15,2013-06-21 19:56:00,
2013-06-21 15:57:00,83.8,63.7,30.24,SSE,148,0.0,10.0,51,0.00,,,0.00,Wunderground v.1.15,2013-06-21 19:57:00,
2013-06-21 15:58:00,83.9,64.4,30.24,SSW,193,8.0,10.0,52,0.00,,,0.00,Wunderground v.1.15,2013-06-21 19:58:00,
2013-06-21 15:59:00,84.2,64.1,30.24,WSW,240,3.0,10.0,51,0.00,,,0.00,Wunderground v.1.15,2013-06-21 19:59:00,
2013-06-21 16:01:00,84.1,62.3,30.24,WSW,246,4.0,9.0,48,0.00,,,0.00,Wunderground v.1.15,2013-06-21 20:01:00,
2013-06-21 16:02:00,83.9,63.8,30.24,NNE,12,1.0,9.0,51,0.00,,,0.00,Wunderground v.1.15,2013-06-21 20:02:00,
2013-06-21 16:03:00,83.9,63.8,30.24,SSW,212,3.0,9.0,51,0.00,,,0.00,Wunderground v.1.15,2013-06-21 20:03:00,
2013-06-21 16:04:00,84.0,65.0,30.24,WNW,294,2.0,9.0,53,0.00,,,0.00,Wunderground v.1.15,2013-06-21 20:04:00,
2013-06-21 16:05:00,84.1,64.0,30.24,WSW,250,5.0,9.0,51,0.00,,,0.00,Wunderground v.1.15,2013-06-21 20:05:00,
2013-06-21 16:06:00,84.2,63.0,30.24,SSE,150,2.0,9.0,49,0.00,,,0.00,Wunderground v.1.15,2013-06-21 20:06:00,
2013-06-21 16:07:00,84.3,64.2,30.24,West,274,4.0,9.0,51,0.00,,,0.00,Wunderground v.1.15,2013-06-21 20:07:00,
2013-06-21 16:08:00,84.3,63.1,30.24,WNW,294,6.0,9.0,49,0.00,,,0.00,Wunderground v.1.15,2013-06-21 20:08:00,
2013-06-21 16:10:00,84.2,63.5,30.24,SSW,212,0.0,3.0,50,0.00,,,0.00,Wunderground v.1.15,2013-06-21 20:10:00,
2013-06-21 16:11:00,84.3,63.6,30.24,NNW,335,1.0,3.0,50,0.00,,,0.00,Wunderground v.1.15,2013-06-21 20:11:00,
2013-06-21 16:12:00,84.5,63.8,30.24,WNW,294,1.0,3.0,50,0.00,,,0.00,Wunderground v.1.15,2013-06-21 20:12:00,
2013-06-21 16:13:00,84.6,65.0,30.24,WSW,239,1.0,3.0,52,0.00,,,0.00,Wunderground v.1.15,2013-06-21 20:13:00,
2013-06-21 16:15:00,84.8,64.1,30.24,SSE,166,7.0,7.0,50,0.00,,,0.00,Wunderground v.1.15,2013-06-21 20:15:00,
2013-06-21 16:16:00,84.7,63.4,30.24,SW,225,2.0,7.0,49,0.00,,,0.00,Wunderground v.1.15,2013-06-21 20:16:00,
2013-06-21 16:17:00,84.7,63.4,30.23,South,188,5.0,7.0,49,0.00,,,0.00,Wunderground v.1.15,2013-06-21 20:17:00,
2013-06-21 16:18:00,84.6,63.3,30.23,SSW,198,3.0,7.0,49,0.00,,,0.00,Wunderground v.1.15,2013-06-21 20:18:00,
2013-06-21 16:21:00,84.6,64.5,30.23,West,259,2.0,4.0,51,0.00,,,0.00,Wunderground v.1.15,2013-06-21 20:21:00,
2013-06-21 16:23:00,84.7,65.1,30.23,ESE,114,0.0,4.0,52,0.00,,,0.00,Wunderground v.1.15,2013-06-21 20:23:00,
2013-06-21 16:24:00,84.8,65.2,30.23,ESE,103,1.0,4.0,52,0.00,,,0.00,Wunderground v.1.15,2013-06-21 20:24:00,
2013-06-21 16:26:00,85.0,66.0,30.23,West,276,0.0,4.0,53,0.00,,,0.00,Wunderground v.1.15,2013-06-21 20:26:00,
2013-06-21 16:28:00,85.3,65.7,30.23,East,84,0.0,4.0,52,0.00,,,0.00,Wunderground v.1.15,2013-06-21 20:28:00,
2013-06-21 16:29:00,85.4,65.2,30.23,NE,48,1.0,4.0,51,0.00,,,0.00,Wunderground v.1.15,2013-06-21 20:29:00,
2013-06-21 16:31:00,85.7,65.5,30.23,WSW,242,1.0,5.0,51,0.00,,,0.00,Wunderground v.1.15,2013-06-21 20:31:00,
2013-06-21 16:33:00,85.7,66.0,30.23,SW,225,6.0,6.0,52,0.00,,,0.00,Wunderground v.1.15,2013-06-21 20:33:00,
2013-06-21 16:34:00,85.5,65.9,30.23,SW,215,0.0,6.0,52,0.00,,,0.00,Wunderground v.1.15,2013-06-21 20:34:00,
2013-06-21 16:36:00,85.6,66.5,30.23,NW,314,3.0,6.0,53,0.00,,,0.00,Wunderground v.1.15,2013-06-21 20:36:00,
2013-06-21 16:38:00,85.6,64.8,30.23,WSW,245,2.0,6.0,50,0.00,,,0.00,Wunderground v.1.15,2013-06-21 20:38:00,
2013-06-21 16:39:00,85.5,65.3,30.23,WSW,238,2.0,6.0,51,0.00,,,0.00,Wunderground v.1.15,2013-06-21 20:39:00,
2013-06-21 16:42:00,85.4,65.2,30.23,WSW,255,3.0,3.0,51,0.00,,,0.00,Wunderground v.1.15,2013-06-21 20:42:00,
2013-06-21 16:44:00,85.2,63.3,30.23,WSW,242,3.0,8.0,48,0.00,,,0.00,Wunderground v.1.15,2013-06-21 20:44:00,
2013-06-21 16:48:00,84.7,64.0,30.23,WSW,249,2.0,8.0,50,0.00,,,0.00,Wunderground v.1.15,2013-06-21 20:48:00,
2013-06-21 16:49:00,84.6,63.3,30.23,SW,222,5.0,8.0,49,0.00,,,0.00,Wunderground v.1.15,2013-06-21 20:49:00,
2013-06-21 16:50:00,84.6,62.7,30.23,WSW,246,2.0,3.0,48,0.00,,,0.00,Wunderground v.1.15,2013-06-21 20:50:00,
2013-06-21 16:53:00,84.7,65.1,30.22,SW,217,5.0,5.0,52,0.00,,,0.00,Wunderground v.1.15,2013-06-21 20:53:00,
2013-06-21 16:54:00,84.7,63.4,30.23,SW,228,6.0,8.0,49,0.00,,,0.00,Wunderground v.1.15,2013-06-21 20:54:00,
2013-06-21 16:55:00,84.6,63.3,30.22,West,270,3.0,8.0,49,0.00,,,0.00,Wunderground v.1.15,2013-06-21 20:55:00,
2013-06-21 16:58:00,84.3,64.8,30.22,WNW,284,1.0,8.0,52,0.00,,,0.00,Wunderground v.1.15,2013-06-21 20:58:00,
2013-06-21 16:59:00,84.4,64.3,30.22,NE,39,2.0,8.0,51,0.00,,,0.00,Wunderground v.1.15,2013-06-21 20:59:00,
2013-06-21 17:00:00,84.5,64.4,30.22,NE,40,0.0,3.0,51,0.00,,,0.00,Wunderground v.1.15,2013-06-21 21:00:00,
2013-06-21 17:03:00,84.6,64.5,30.22,NNE,30,1.0,5.0,51,0.00,,,0.00,Wunderground v.1.15,2013-06-21 21:03:00,
2013-06-21 17:04:00,84.7,65.1,30.22,NE,42,0.0,5.0,52,0.00,,,0.00,Wunderground v.1.15,2013-06-21 21:04:00,
2013-06-21 17:05:00,84.9,65.9,30.22,SW,214,1.0,5.0,53,0.00,,,0.00,Wunderground v.1.15,2013-06-21 21:05:00,
2013-06-21 17:08:00,85.1,64.4,30.22,SW,229,2.0,5.0,50,0.00,,,0.00,Wunderground v.1.15,2013-06-21 21:08:00,
2013-06-21 17:10:00,85.0,64.3,30.22,SW,218,2.0,4.0,50,0.00,,,0.00,Wunderground v.1.15,2013-06-21 21:10:00,
2013-06-21 17:11:00,85.0,63.7,30.22,WNW,288,1.0,4.0,49,0.00,,,0.00,Wunderground v.1.15,2013-06-21 21:11:00,
2013-06-21 17:13:00,84.9,63.6,30.22,WSW,252,4.0,4.0,49,0.00,,,0.00,Wunderground v.1.15,2013-06-21 21:13:00,
2013-06-21 17:15:00,84.7,62.2,30.22,West,262,2.0,7.0,47,0.00,,,0.00,Wunderground v.1.15,2013-06-21 21:15:00,
2013-06-21 17:16:00,84.6,62.7,30.22,WSW,256,2.0,7.0,48,0.00,,,0.00,Wunderground v.1.15,2013-06-21 21:16:00,
2013-06-21 17:17:00,84.6,62.7,30.22,East,91,1.0,7.0,48,0.00,,,0.00,Wunderground v.1.15,2013-06-21 21:17:00,
2013-06-21 17:19:00,84.6,63.3,30.22,SW,236,2.0,7.0,49,0.00,,,0.00,Wunderground v.1.15,2013-06-21 21:19:00,
2013-06-21 17:20:00,84.7,63.4,30.22,SW,227,4.0,7.0,49,0.00,,,0.00,Wunderground v.1.15,2013-06-21 21:20:00,
2013-06-21 17:21:00,84.7,62.8,30.22,SSW,199,2.0,7.0,48,0.00,,,0.00,Wunderground v.1.15,2013-06-21 21:21:00,
2013-06-21 17:22:00,84.7,63.4,30.22,SSW,197,2.0,7.0,49,0.00,,,0.00,Wunderground v.1.15,2013-06-21 21:22:00,
2013-06-21 17:24:00,84.8,63.5,30.22,NE,50,2.0,7.0,49,0.00,,,0.00,Wunderground v.1.15,2013-06-21 21:24:00,
2013-06-21 17:26:00,84.9,63.0,30.22,SW,235,3.0,7.0,48,0.00,,,0.00,Wunderground v.1.15,2013-06-21 21:26:00,
2013-06-21 17:27:00,84.7,62.2,30.22,West,267,4.0,7.0,47,0.00,,,0.00,Wunderground v.1.15,2013-06-21 21:27:00,
2013-06-21 17:28:00,84.5,62.7,30.22,SW,221,4.0,7.0,48,0.00,,,0.00,Wunderground v.1.15,2013-06-21 21:28:00,
2013-06-21 17:29:00,84.4,63.7,30.21,SSE,150,1.0,7.0,50,0.00,,,0.00,Wunderground v.1.15,2013-06-21 21:29:00,
2013-06-21 17:31:00,84.4,62.6,30.21,WSW,242,1.0,3.0,48,0.00,,,0.00,Wunderground v.1.15,2013-06-21 21:31:00,
2013-06-21 17:32:00,84.4,62.6,30.21,ESE,123,1.0,3.0,48,0.00,,,0.00,Wunderground v.1.15,2013-06-21 21:32:00,
2013-06-21 17:33:00,84.5,63.8,30.21,WSW,240,4.0,4.0,50,0.00,,,0.00,Wunderground v.1.15,2013-06-21 21:33:00,
2013-06-21 17:34:00,84.6,63.3,30.21,SW,215,2.0,4.0,49,0.00,,,0.00,Wunderground v.1.15,2013-06-21 21:34:00,
2013-06-21 17:36:00,84.7,64.0,30.21,SSW,200,4.0,7.0,50,0.00,,,0.00,Wunderground v.1.15,2013-06-21 21:36:00,
2013-06-21 17:37:00,84.6,62.1,30.21,SW,229,3.0,7.0,47,0.00,,,0.00,Wunderground v.1.15,2013-06-21 21:37:00,
2013-06-21 17:38:00,84.6,62.7,30.21,SW,225,6.0,7.0,48,0.00,,,0.00,Wunderground v.1.15,2013-06-21 21:38:00,
2013-06-21 17:39:00,84.5,62.7,30.21,SSW,204,2.0,7.0,48,0.00,,,0.00,Wunderground v.1.15,2013-06-21 21:39:00,
2013-06-21 17:42:00,84.5,62.7,30.21,South,191,1.0,3.0,48,0.00,,,0.00,Wunderground v.1.15,2013-06-21 21:42:00,
2013-06-21 17:43:00,84.4,63.7,30.21,WSW,245,5.0,7.0,50,0.00,,,0.00,Wunderground v.1.15,2013-06-21 21:43:00,
2013-06-21 17:44:00,84.4,63.7,30.21,West,259,2.0,7.0,50,0.00,,,0.00,Wunderground v.1.15,2013-06-21 21:44:00,
2013-06-21 17:48:00,84.5,63.2,30.21,West,270,3.0,7.0,49,0.00,,,0.00,Wunderground v.1.15,2013-06-21 21:48:00,
2013-06-21 17:49:00,84.5,63.2,30.21,WSW,240,2.0,7.0,49,0.00,,,0.00,Wunderground v.1.15,2013-06-21 21:49:00,
2013-06-21 17:53:00,84.7,64.6,30.21,East,96,1.0,3.0,51,0.00,,,0.00,Wunderground v.1.15,2013-06-21 21:53:00,
2013-06-21 17:54:00,84.9,64.2,30.21,WNW,297,1.0,3.0,50,0.00,,,0.00,Wunderground v.1.15,2013-06-21 21:54:00,
2013-06-21 17:58:00,84.7,64.0,30.21,SW,228,3.0,7.0,50,0.00,,,0.00,Wunderground v.1.15,2013-06-21 21:58:00,
2013-06-21 17:59:00,84.5,62.7,30.21,West,275,1.0,7.0,48,0.00,,,0.00,Wunderground v.1.15,2013-06-21 21:59:00,
2013-06-21 18:00:00,84.5,64.4,30.21,WSW,250,7.0,8.0,51,0.00,,,0.00,Wunderground v.1.15,2013-06-21 22:00:00,
2013-06-21 18:03:00,84.1,64.6,30.21,ESE,102,1.0,8.0,52,0.00,,,0.00,Wunderground v.1.15,2013-06-21 22:03:00,
2013-06-21 18:04:00,84.1,64.6,30.21,ENE,67,1.0,8.0,52,0.00,,,0.00,Wunderground v.1.15,2013-06-21 22:04:00,
2013-06-21 18:05:00,84.2,64.7,30.21,SW,228,1.0,8.0,52,0.00,,,0.00,Wunderground v.1.15,2013-06-21 22:05:00,
2013-06-21 18:09:00,84.6,64.5,30.21,SSW,197,4.0,8.0,51,0.00,,,0.00,Wunderground v.1.15,2013-06-21 22:09:00,
2013-06-21 18:10:00,84.7,62.8,30.21,SW,222,4.0,5.0,48,0.00,,,0.00,Wunderground v.1.15,2013-06-21 22:10:00,
2013-06-21 18:14:00,84.5,64.4,30.21,NE,36,0.0,5.0,51,0.00,,,0.00,Wunderground v.1.15,2013-06-21 22:14:00,
2013-06-21 18:15:00,84.4,63.2,30.21,WSW,256,5.0,5.0,49,0.00,,,0.00,Wunderground v.1.15,2013-06-21 22:15:00,
2013-06-21 18:16:00,84.3,61.9,30.21,SW,229,4.0,5.0,47,0.00,,,0.00,Wunderground v.1.15,2013-06-21 22:16:00,
2013-06-21 18:19:00,83.9,62.7,30.21,SW,232,2.0,5.0,49,0.00,,,0.00,Wunderground v.1.15,2013-06-21 22:19:00,
2013-06-21 18:20:00,84.0,63.4,30.21,North,11,0.0,2.0,50,0.00,,,0.00,Wunderground v.1.15,2013-06-21 22:20:00,
2013-06-21 18:21:00,84.0,63.4,30.21,North,9,0.0,2.0,50,0.00,,,0.00,Wunderground v.1.15,2013-06-21 22:21:00,
2013-06-21 18:24:00,84.1,63.5,30.21,West,263,0.0,6.0,50,0.00,,,0.00,Wunderground v.1.15,2013-06-21 22:24:00,
2013-06-21 18:25:00,84.0,63.4,30.21,West,262,1.0,6.0,50,0.00,,,0.00,Wunderground v.1.15,2013-06-21 22:25:00,
2013-06-21 18:26:00,83.9,63.3,30.21,SSW,207,2.0,6.0,50,0.00,,,0.00,Wunderground v.1.15,2013-06-21 22:26:00,
2013-06-21 18:29:00,83.8,63.2,30.21,SW,231,0.0,6.0,50,0.00,,,0.00,Wunderground v.1.15,2013-06-21 22:29:00,
2013-06-21 18:30:00,83.7,63.7,30.20,WSW,243,2.0,2.0,51,0.00,,,0.00,Wunderground v.1.15,2013-06-21 22:30:00,
2013-06-21 18:31:00,83.7,63.7,30.20,WSW,252,0.0,2.0,51,0.00,,,0.00,Wunderground v.1.15,2013-06-21 22:31:00,
2013-06-21 18:34:00,84.0,63.4,30.20,WSW,253,1.0,4.0,50,0.00,,,0.00,Wunderground v.1.15,2013-06-21 22:34:00,
2013-06-21 18:36:00,84.1,63.5,30.20,SW,229,4.0,4.0,50,0.00,,,0.00,Wunderground v.1.15,2013-06-21 22:36:00,
2013-06-21 18:39:00,83.7,63.1,30.20,WSW,238,2.0,5.0,50,0.00,,,0.00,Wunderground v.1.15,2013-06-21 22:39:00,
2013-06-21 18:41:00,83.6,63.0,30.20,South,169,2.0,5.0,50,0.00,,,0.00,Wunderground v.1.15,2013-06-21 22:41:00,
2013-06-21 18:45:00,83.6,63.0,30.21,WSW,249,0.0,6.0,50,0.00,,,0.00,Wunderground v.1.15,2013-06-21 22:45:00,
2013-06-21 18:46:00,83.6,64.1,30.21,SW,229,0.0,6.0,52,0.00,,,0.00,Wunderground v.1.15,2013-06-21 22:46:00,
2013-06-21 18:48:00,83.7,63.7,30.20,SSW,201,1.0,6.0,51,0.00,,,0.00,Wunderground v.1.15,2013-06-21 22:48:00,
2013-06-21 18:50:00,83.7,63.1,30.20,NW,325,0.0,3.0,50,0.00,,,0.00,Wunderground v.1.15,2013-06-21 22:50:00,
2013-06-21 18:51:00,83.7,64.8,30.20,NW,325,0.0,3.0,53,0.00,,,0.00,Wunderground v.1.15,2013-06-21 22:51:00,
2013-06-21 18:52:00,83.7,63.1,30.20,WSW,240,1.0,3.0,50,0.00,,,0.00,Wunderground v.1.15,2013-06-21 22:52:00,
2013-06-21 18:54:00,83.7,62.5,30.20,NNW,330,1.0,7.0,49,0.00,,,0.00,Wunderground v.1.15,2013-06-21 22:54:00,
2013-06-21 18:55:00,83.6,63.0,30.21,NNE,23,2.0,7.0,50,0.00,,,0.00,Wunderground v.1.15,2013-06-21 22:55:00,
2013-06-21 18:56:00,83.6,63.0,30.21,SW,222,1.0,7.0,50,0.00,,,0.00,Wunderground v.1.15,2013-06-21 22:56:00,
2013-06-21 18:58:00,83.4,63.4,30.21,West,259,1.0,7.0,51,0.00,,,0.00,Wunderground v.1.15,2013-06-21 22:58:00,
2013-06-21 18:59:00,83.4,62.8,30.21,SSW,204,1.0,7.0,50,0.00,,,0.00,Wunderground v.1.15,2013-06-21 22:59:00,
2013-06-21 19:01:00,83.4,63.4,30.21,SW,232,3.0,4.0,51,0.00,,,0.00,Wunderground v.1.15,2013-06-21 23:01:00,
2013-06-21 19:03:00,83.4,63.4,30.21,West,266,1.0,4.0,51,0.00,,,0.00,Wunderground v.1.15,2013-06-21 23:03:00,
2013-06-21 19:05:00,83.4,63.4,30.21,WSW,250,2.0,4.0,51,0.00,,,0.00,Wunderground v.1.15,2013-06-21 23:05:00,
2013-06-21 19:06:00,83.3,63.3,30.21,WSW,239,0.0,4.0,51,0.00,,,0.00,Wunderground v.1.15,2013-06-21 23:06:00,
2013-06-21 19:08:00,83.3,63.3,30.20,SW,228,1.0,4.0,51,0.00,,,0.00,Wunderground v.1.15,2013-06-21 23:08:00,
2013-06-21 19:10:00,83.2,63.7,30.21,SW,234,2.0,2.0,52,0.00,,,0.00,Wunderground v.1.15,2013-06-21 23:10:00,
2013-06-21 19:11:00,83.2,63.2,30.21,West,261,1.0,2.0,51,0.00,,,0.00,Wunderground v.1.15,2013-06-21 23:11:00,
2013-06-21 19:13:00,83.3,63.3,30.20,SSW,197,5.0,7.0,51,0.00,,,0.00,Wunderground v.1.15,2013-06-21 23:13:00,
2013-06-21 19:15:00,83.1,63.1,30.20,SW,229,3.0,7.0,51,0.00,,,0.00,Wunderground v.1.15,2013-06-21 23:15:00,
2013-06-21 19:16:00,83.1,63.1,30.21,WSW,257,4.0,7.0,51,0.00,,,0.00,Wunderground v.1.15,2013-06-21 23:16:00,
2013-06-21 19:17:00,83.0,62.4,30.21,SW,215,1.0,7.0,50,0.00,,,0.00,Wunderground v.1.15,2013-06-21 23:17:00,
2013-06-21 19:18:00,83.0,63.0,30.21,ESE,123,2.0,7.0,51,0.00,,,0.00,Wunderground v.1.15,2013-06-21 23:18:00,
2013-06-21 19:20:00,83.0,63.0,30.21,WNW,287,0.0,2.0,51,0.00,,,0.00,Wunderground v.1.15,2013-06-21 23:20:00,
2013-06-21 19:21:00,83.0,63.0,30.21,SSW,207,1.0,2.0,51,0.00,,,0.00,Wunderground v.1.15,2013-06-21 23:21:00,
2013-06-21 19:22:00,83.0,63.0,30.21,SW,219,2.0,2.0,51,0.00,,,0.00,Wunderground v.1.15,2013-06-21 23:22:00,
2013-06-21 19:23:00,83.0,63.0,30.21,West,269,2.0,4.0,51,0.00,,,0.00,Wunderground v.1.15,2013-06-21 23:23:00,
2013-06-21 19:25:00,82.9,62.4,30.21,West,263,1.0,4.0,50,0.00,,,0.00,Wunderground v.1.15,2013-06-21 23:25:00,
2013-06-21 19:26:00,82.8,62.8,30.21,East,89,1.0,4.0,51,0.00,,,0.00,Wunderground v.1.15,2013-06-21 23:26:00,
2013-06-21 19:27:00,82.8,62.8,30.21,East,92,0.0,4.0,51,0.00,,,0.00,Wunderground v.1.15,2013-06-21 23:27:00,
2013-06-21 19:28:00,82.8,63.9,30.21,SW,229,3.0,4.0,53,0.00,,,0.00,Wunderground v.1.15,2013-06-21 23:28:00,
2013-06-21 19:30:00,82.8,62.8,30.21,WSW,245,1.0,2.0,51,0.00,,,0.00,Wunderground v.1.15,2013-06-21 23:30:00,
2013-06-21 19:31:00,82.8,63.4,30.21,WSW,243,0.0,2.0,52,0.00,,,0.00,Wunderground v.1.15,2013-06-21 23:31:00,
2013-06-21 19:33:00,83.0,64.1,30.21,WSW,243,0.0,2.0,53,0.00,,,0.00,Wunderground v.1.15,2013-06-21 23:33:00,
2013-06-21 19:36:00,83.3,64.4,30.21,SSE,160,0.0,2.0,53,0.00,,,0.00,Wunderground v.1.15,2013-06-21 23:36:00,
2013-06-21 19:38:00,83.4,64.5,30.21,SSE,166,0.0,2.0,53,0.00,,,0.00,Wunderground v.1.15,2013-06-21 23:38:00,
2013-06-21 19:39:00,83.4,64.5,30.21,SW,229,0.0,2.0,53,0.00,,,0.00,Wunderground v.1.15,2013-06-21 23:39:00,
2013-06-21 19:41:00,83.2,64.3,30.21,ENE,75,0.0,0.0,53,0.00,,,0.00,Wunderground v.1.15,2013-06-21 23:41:00,
2013-06-21 19:42:00,83.0,64.6,30.21,ENE,69,0.0,0.0,54,0.00,,,0.00,Wunderground v.1.15,2013-06-21 23:42:00,
2013-06-21 19:43:00,83.0,64.6,30.21,ENE,69,0.0,0.0,54,0.00,,,0.00,Wunderground v.1.15,2013-06-21 23:43:00,
2013-06-21 19:44:00,82.9,65.1,30.21,NE,38,1.0,1.0,55,0.00,,,0.00,Wunderground v.1.15,2013-06-21 23:44:00,
2013-06-21 19:47:00,82.7,64.9,30.21,NE,39,0.0,1.0,55,0.00,,,0.00,Wunderground v.1.15,2013-06-21 23:47:00,
2013-06-21 19:48:00,82.6,64.8,30.21,NE,38,1.0,1.0,55,0.00,,,0.00,Wunderground v.1.15,2013-06-21 23:48:00,
2013-06-21 19:49:00,82.4,65.1,30.21,NE,38,1.0,1.0,56,0.00,,,0.00,Wunderground v.1.15,2013-06-21 23:49:00,
2013-06-21 19:52:00,82.1,65.4,30.21,NE,39,0.0,1.0,57,0.00,,,0.00,Wunderground v.1.15,2013-06-21 23:52:00,
2013-06-21 19:53:00,82.0,66.3,30.21,NE,38,1.0,1.0,59,0.00,,,0.00,Wunderground v.1.15,2013-06-21 23:53:00,
2013-06-21 19:54:00,81.7,65.0,30.21,NE,39,0.0,1.0,57,0.00,,,0.00,Wunderground v.1.15,2013-06-21 23:54:00,
2013-06-21 19:55:00,81.6,65.4,30.21,NE,38,0.0,1.0,58,0.00,,,0.00,Wunderground v.1.15,2013-06-21 23:55:00,
2013-06-21 19:57:00,81.4,65.2,30.21,NE,39,0.0,1.0,58,0.00,,,0.00,Wunderground v.1.15,2013-06-21 23:57:00,
2013-06-21 19:58:00,81.3,65.6,30.21,NNE,30,1.0,1.0,59,0.00,,,0.00,Wunderground v.1.15,2013-06-21 23:58:00,
2013-06-21 19:59:00,81.2,65.5,30.21,NNE,30,0.0,1.0,59,0.00,,,0.00,Wunderground v.1.15,2013-06-21 23:59:00,
2013-06-21 20:00:00,81.1,65.4,30.21,NNE,30,0.0,0.0,59,0.00,,,0.00,Wunderground v.1.15,2013-06-22 00:00:00,
2013-06-21 20:02:00,81.0,65.8,30.21,NNE,30,0.0,1.0,60,0.00,,,0.00,Wunderground v.1.15,2013-06-22 00:02:00,
2013-06-21 20:03:00,81.0,65.8,30.21,NNE,30,0.0,1.0,60,0.00,,,0.00,Wunderground v.1.15,2013-06-22 00:03:00,
2013-06-21 20:04:00,81.0,65.8,30.21,NNE,30,0.0,1.0,60,0.00,,,0.00,Wunderground v.1.15,2013-06-22 00:04:00,
2013-06-21 20:05:00,80.9,65.7,30.21,NNE,30,0.0,1.0,60,0.00,,,0.00,Wunderground v.1.15,2013-06-22 00:05:00,
2013-06-21 20:07:00,80.7,65.5,30.21,NNW,330,1.0,2.0,60,0.00,,,0.00,Wunderground v.1.15,2013-06-22 00:07:00,
2013-06-21 20:08:00,80.6,65.4,30.21,NNW,330,0.0,2.0,60,0.00,,,0.00,Wunderground v.1.15,2013-06-22 00:08:00,
2013-06-21 20:09:00,80.4,65.7,30.21,NNW,330,0.0,2.0,61,0.00,,,0.00,Wunderground v.1.15,2013-06-22 00:09:00,
2013-06-21 20:10:00,80.2,66.0,30.21,NNW,330,0.0,0.0,62,0.00,,,0.00,Wunderground v.1.15,2013-06-22 00:10:00,
2013-06-21 20:12:00,80.0,65.8,30.21,NNW,330,0.0,0.0,62,0.00,,,0.00,Wunderground v.1.15,2013-06-22 00:12:00,
2013-06-21 20:13:00,79.9,66.2,30.21,NNW,330,0.0,0.0,63,0.00,,,0.00,Wunderground v.1.15,2013-06-22 00:13:00,
2013-06-21 20:14:00,79.7,66.0,30.21,NNW,330,0.0,0.0,63,0.00,,,0.00,Wunderground v.1.15,2013-06-22 00:14:00,
2013-06-21 20:15:00,79.5,66.3,30.21,NNW,330,0.0,0.0,64,0.00,,,0.00,Wunderground v.1.15,2013-06-22 00:15:00,
2013-06-21 20:17:00,79.3,66.5,30.21,NNW,330,0.0,0.0,65,0.00,,,0.00,Wunderground v.1.15,2013-06-22 00:17:00,
2013-06-21 20:18:00,79.1,66.3,30.21,NNW,330,0.0,0.0,65,0.00,,,0.00,Wunderground v.1.15,2013-06-22 00:18:00,
2013-06-21 20:19:00,78.9,66.1,30.21,NNW,330,0.0,0.0,65,0.00,,,0.00,Wunderground v.1.15,2013-06-22 00:19:00,
2013-06-21 20:20:00,78.8,66.0,30.21,NNW,330,0.0,0.0,65,0.00,,,0.00,Wunderground v.1.15,2013-06-22 00:20:00,
2013-06-21 20:22:00,78.4,66.1,30.21,NNW,330,0.0,0.0,66,0.00,,,0.00,Wunderground v.1.15,2013-06-22 00:22:00,
2013-06-21 20:24:00,78.1,65.8,30.21,NNW,330,0.0,0.0,66,0.00,,,0.00,Wunderground v.1.15,2013-06-22 00:24:00,
2013-06-21 20:25:00,78.0,65.7,30.21,NNW,330,0.0,0.0,66,0.00,,,0.00,Wunderground v.1.15,2013-06-22 00:25:00,
2013-06-21 20:26:00,77.8,66.0,30.21,NNW,330,0.0,0.0,67,0.00,,,0.00,Wunderground v.1.15,2013-06-22 00:26:00,
2013-06-21 20:27:00,77.5,65.7,30.21,NNW,330,0.0,0.0,67,0.00,,,0.00,Wunderground v.1.15,2013-06-22 00:27:00,
2013-06-21 20:29:00,77.3,65.9,30.21,NNW,330,0.0,0.0,68,0.00,,,0.00,Wunderground v.1.15,2013-06-22 00:29:00,
2013-06-21 20:30:00,77.1,65.7,30.21,NNW,330,0.0,0.0,68,0.00,,,0.00,Wunderground v.1.15,2013-06-22 00:30:00,
2013-06-21 20:31:00,77.0,66.0,30.21,NNW,330,0.0,0.0,69,0.00,,,0.00,Wunderground v.1.15,2013-06-22 00:31:00,
2013-06-21 20:32:00,76.8,66.3,30.21,NNW,330,0.0,0.0,70,0.00,,,0.00,Wunderground v.1.15,2013-06-22 00:32:00,
2013-06-21 20:34:00,76.5,66.0,30.21,NNW,330,0.0,0.0,70,0.00,,,0.00,Wunderground v.1.15,2013-06-22 00:34:00,
2013-06-21 20:35:00,76.4,65.9,30.21,NNW,330,0.0,0.0,70,0.00,,,0.00,Wunderground v.1.15,2013-06-22 00:35:00,
2013-06-21 20:36:00,76.3,66.2,30.21,NNW,330,0.0,0.0,71,0.00,,,0.00,Wunderground v.1.15,2013-06-22 00:36:00,
2013-06-21 20:37:00,76.1,66.0,30.21,NNW,330,0.0,0.0,71,0.00,,,0.00,Wunderground v.1.15,2013-06-22 00:37:00,
2013-06-21 20:39:00,75.8,66.1,30.21,NNW,330,0.0,0.0,72,0.00,,,0.00,Wunderground v.1.15,2013-06-22 00:39:00,
2013-06-21 20:40:00,75.7,66.0,30.21,NNW,330,0.0,0.0,72,0.00,,,0.00,Wunderground v.1.15,2013-06-22 00:40:00,
2013-06-21 20:41:00,75.6,66.3,30.21,NNW,330,0.0,0.0,73,0.00,,,0.00,Wunderground v.1.15,2013-06-22 00:41:00,
2013-06-21 20:42:00,75.4,66.1,30.21,NNW,330,0.0,0.0,73,0.00,,,0.00,Wunderground v.1.15,2013-06-22 00:42:00,
2013-06-21 20:45:00,75.0,66.1,30.21,NNW,332,0.0,0.0,74,0.00,,,0.00,Wunderground v.1.15,2013-06-22 00:45:00,
2013-06-21 20:46:00,74.9,66.1,30.21,NNW,332,0.0,0.0,74,0.00,,,0.00,Wunderground v.1.15,2013-06-22 00:46:00,
2013-06-21 20:48:00,74.6,65.8,30.21,NNW,330,0.0,0.0,74,0.00,,,0.00,Wunderground v.1.15,2013-06-22 00:48:00,
2013-06-21 20:50:00,74.3,65.9,30.21,NNW,332,0.0,0.0,75,0.00,,,0.00,Wunderground v.1.15,2013-06-22 00:50:00,
2013-06-21 20:51:00,74.2,65.8,30.21,NNW,331,0.0,0.0,75,0.00,,,0.00,Wunderground v.1.15,2013-06-22 00:51:00,
2013-06-21 20:52:00,74.0,66.0,30.21,NNW,332,0.0,0.0,76,0.00,,,0.00,Wunderground v.1.15,2013-06-22 00:52:00,
2013-06-21 20:53:00,73.9,65.9,30.21,NNW,331,0.0,0.0,76,0.00,,,0.00,Wunderground v.1.15,2013-06-22 00:53:00,
2013-06-21 20:55:00,73.5,65.8,30.21,NNW,331,0.0,0.0,77,0.00,,,0.00,Wunderground v.1.15,2013-06-22 00:55:00,
2013-06-21 20:56:00,73.5,65.8,30.21,NNW,331,0.0,0.0,77,0.00,,,0.00,Wunderground v.1.15,2013-06-22 00:56:00,
2013-06-21 20:57:00,73.3,65.7,30.21,NNW,331,0.0,0.0,77,0.00,,,0.00,Wunderground v.1.15,2013-06-22 00:57:00,
2013-06-21 20:58:00,73.1,65.8,30.21,NNW,331,0.0,0.0,78,0.00,,,0.00,Wunderground v.1.15,2013-06-22 00:58:00,
2013-06-21 21:01:00,72.9,66.0,30.21,NNW,332,0.0,0.0,79,0.00,,,0.00,Wunderground v.1.15,2013-06-22 01:01:00,
2013-06-21 21:02:00,72.7,65.8,30.21,NNW,331,0.0,0.0,79,0.00,,,0.00,Wunderground v.1.15,2013-06-22 01:02:00,
2013-06-21 21:03:00,72.6,65.7,30.21,NNW,331,0.0,0.0,79,0.00,,,0.00,Wunderground v.1.15,2013-06-22 01:03:00,
2013-06-21 21:06:00,72.3,65.8,30.21,NNW,332,0.0,0.0,80,0.00,,,0.00,Wunderground v.1.15,2013-06-22 01:06:00,
2013-06-21 21:07:00,72.2,65.7,30.22,NNW,332,0.0,0.0,80,0.00,,,0.00,Wunderground v.1.15,2013-06-22 01:07:00,
2013-06-21 21:09:00,72.0,65.5,30.22,NNW,331,0.0,0.0,80,0.00,,,0.00,Wunderground v.1.15,2013-06-22 01:09:00,
2013-06-21 21:11:00,71.8,65.7,30.22,NNW,332,0.0,0.0,81,0.00,,,0.00,Wunderground v.1.15,2013-06-22 01:11:00,
2013-06-21 21:12:00,71.7,65.6,30.22,NNW,331,0.0,0.0,81,0.00,,,0.00,Wunderground v.1.15,2013-06-22 01:12:00,
2013-06-21 21:14:00,71.5,65.7,30.22,NNW,331,0.0,0.0,82,0.00,,,0.00,Wunderground v.1.15,2013-06-22 01:14:00,
2013-06-21 21:16:00,71.3,65.5,30.22,NNW,332,0.0,0.0,82,0.00,,,0.00,Wunderground v.1.15,2013-06-22 01:16:00,
2013-06-21 21:17:00,71.2,65.4,30.22,NNW,331,0.0,0.0,82,0.00,,,0.00,Wunderground v.1.15,2013-06-22 01:17:00,
2013-06-21 21:18:00,71.1,65.7,30.22,NNW,332,0.0,0.0,83,0.00,,,0.00,Wunderground v.1.15,2013-06-22 01:18:00,
2013-06-21 21:19:00,71.0,65.6,30.22,NNW,331,0.0,0.0,83,0.00,,,0.00,Wunderground v.1.15,2013-06-22 01:19:00,
2013-06-21 21:21:00,70.8,65.4,30.22,NNW,331,0.0,0.0,83,0.00,,,0.00,Wunderground v.1.15,2013-06-22 01:21:00,
2013-06-21 21:22:00,70.8,65.4,30.22,NNW,332,0.0,0.0,83,0.00,,,0.00,Wunderground v.1.15,2013-06-22 01:22:00,
2013-06-21 21:24:00,70.5,65.4,30.22,NNW,332,0.0,0.0,84,0.00,,,0.00,Wunderground v.1.15,2013-06-22 01:24:00,
2013-06-21 21:26:00,70.3,65.6,30.22,NNW,332,0.0,0.0,85,0.00,,,0.00,Wunderground v.1.15,2013-06-22 01:26:00,
2013-06-21 21:27:00,70.3,65.6,30.22,NNW,332,0.0,0.0,85,0.00,,,0.00,Wunderground v.1.15,2013-06-22 01:27:00,
2013-06-21 21:28:00,70.2,65.5,30.22,NNW,332,0.0,0.0,85,0.00,,,0.00,Wunderground v.1.15,2013-06-22 01:28:00,
2013-06-21 21:29:00,70.1,65.7,30.22,NNW,331,0.0,0.0,86,0.00,,,0.00,Wunderground v.1.15,2013-06-22 01:29:00,
2013-06-21 21:31:00,70.0,65.6,30.22,NNW,332,0.0,0.0,86,0.00,,,0.00,Wunderground v.1.15,2013-06-22 01:31:00,
2013-06-21 21:32:00,69.9,65.5,30.22,NNW,331,0.0,0.0,86,0.00,,,0.00,Wunderground v.1.15,2013-06-22 01:32:00,
2013-06-21 21:33:00,69.9,65.5,30.22,NNW,331,0.0,0.0,86,0.00,,,0.00,Wunderground v.1.15,2013-06-22 01:33:00,
2013-06-21 21:34:00,69.8,65.4,30.22,NNW,332,0.0,0.0,86,0.00,,,0.00,Wunderground v.1.15,2013-06-22 01:34:00,
2013-06-21 21:37:00,69.6,65.2,30.22,NNW,332,0.0,0.0,86,0.00,,,0.00,Wunderground v.1.15,2013-06-22 01:37:00,
2013-06-21 21:38:00,69.5,65.1,30.23,NNW,331,0.0,0.0,86,0.00,,,0.00,Wunderground v.1.15,2013-06-22 01:38:00,
2013-06-21 21:39:00,69.4,65.0,30.23,NNW,331,0.0,0.0,86,0.00,,,0.00,Wunderground v.1.15,2013-06-22 01:39:00,
2013-06-21 21:40:00,69.4,65.0,30.23,NNW,331,0.0,0.0,86,0.00,,,0.00,Wunderground v.1.15,2013-06-22 01:40:00,
2013-06-21 21:42:00,69.2,64.8,30.23,NNW,332,0.0,0.0,86,0.00,,,0.00,Wunderground v.1.15,2013-06-22 01:42:00,
2013-06-21 21:43:00,69.1,64.7,30.23,NNW,331,0.0,0.0,86,0.00,,,0.00,Wunderground v.1.15,2013-06-22 01:43:00,
2013-06-21 21:44:00,69.1,65.1,30.23,NNW,332,0.0,0.0,87,0.00,,,0.00,Wunderground v.1.15,2013-06-22 01:44:00,
2013-06-21 21:45:00,69.0,65.0,30.23,NNW,331,0.0,0.0,87,0.00,,,0.00,Wunderground v.1.15,2013-06-22 01:45:00,
2013-06-21 21:47:00,68.8,64.8,30.23,NNW,331,0.0,0.0,87,0.00,,,0.00,Wunderground v.1.15,2013-06-22 01:47:00,
2013-06-21 21:48:00,68.7,64.7,30.23,NNW,332,0.0,0.0,87,0.00,,,0.00,Wunderground v.1.15,2013-06-22 01:48:00,
2013-06-21 21:49:00,68.7,64.7,30.23,NNW,332,0.0,0.0,87,0.00,,,0.00,Wunderground v.1.15,2013-06-22 01:49:00,
2013-06-21 21:50:00,68.6,64.6,30.23,NNW,331,0.0,0.0,87,0.00,,,0.00,Wunderground v.1.15,2013-06-22 01:50:00,
2013-06-21 21:52:00,68.5,64.8,30.23,NNW,332,0.0,0.0,88,0.00,,,0.00,Wunderground v.1.15,2013-06-22 01:52:00,
2013-06-21 21:53:00,68.4,64.7,30.23,NNW,331,0.0,0.0,88,0.00,,,0.00,Wunderground v.1.15,2013-06-22 01:53:00,
2013-06-21 21:54:00,68.4,65.0,30.23,NNW,331,0.0,0.0,89,0.00,,,0.00,Wunderground v.1.15,2013-06-22 01:54:00,
2013-06-21 21:55:00,68.3,64.9,30.23,NNW,331,0.0,0.0,89,0.00,,,0.00,Wunderground v.1.15,2013-06-22 01:55:00,
2013-06-21 21:57:00,68.2,64.8,30.23,NNW,331,0.0,0.0,89,0.00,,,0.00,Wunderground v.1.15,2013-06-22 01:57:00,
2013-06-21 21:59:00,68.1,64.7,30.23,NNW,332,0.0,0.0,89,0.00,,,0.00,Wunderground v.1.15,2013-06-22 01:59:00,
2013-06-21 22:00:00,68.1,64.7,30.23,NNW,331,0.0,0.0,89,0.00,,,0.00,Wunderground v.1.15,2013-06-22 02:00:00,
2013-06-21 22:02:00,67.9,64.5,30.23,NNW,331,0.0,0.0,89,0.00,,,0.00,Wunderground v.1.15,2013-06-22 02:02:00,
2013-06-21 22:05:00,67.8,64.8,30.23,NNW,331,0.0,0.0,90,0.00,,,0.00,Wunderground v.1.15,2013-06-22 02:05:00,
2013-06-21 22:06:00,67.7,64.7,30.23,NNW,332,0.0,0.0,90,0.00,,,0.00,Wunderground v.1.15,2013-06-22 02:06:00,
2013-06-21 22:07:00,67.6,64.6,30.23,NNW,331,0.0,0.0,90,0.00,,,0.00,Wunderground v.1.15,2013-06-22 02:07:00,
2013-06-21 22:08:00,67.6,64.6,30.23,NNW,331,0.0,0.0,90,0.00,,,0.00,Wunderground v.1.15,2013-06-22 02:08:00,
2013-06-21 22:10:00,67.5,64.5,30.23,NNW,331,0.0,0.0,90,0.00,,,0.00,Wunderground v.1.15,2013-06-22 02:10:00,
2013-06-21 22:11:00,67.5,64.8,30.23,NNW,331,0.0,0.0,91,0.00,,,0.00,Wunderground v.1.15,2013-06-22 02:11:00,
2013-06-21 22:12:00,67.4,64.7,30.23,NNW,331,0.0,0.0,91,0.00,,,0.00,Wunderground v.1.15,2013-06-22 02:12:00,
2013-06-21 22:13:00,67.4,64.7,30.23,NNW,332,0.0,0.0,91,0.00,,,0.00,Wunderground v.1.15,2013-06-22 02:13:00,
2013-06-21 22:15:00,67.3,64.6,30.23,NNW,331,0.0,0.0,91,0.00,,,0.00,Wunderground v.1.15,2013-06-22 02:15:00,
2013-06-21 22:16:00,67.3,64.6,30.23,NNW,331,0.0,0.0,91,0.00,,,0.00,Wunderground v.1.15,2013-06-22 02:16:00,
2013-06-21 22:18:00,67.2,64.5,30.23,NNW,332,0.0,0.0,91,0.00,,,0.00,Wunderground v.1.15,2013-06-22 02:18:00,
2013-06-21 22:20:00,67.1,64.4,30.23,NNW,332,0.0,0.0,91,0.00,,,0.00,Wunderground v.1.15,2013-06-22 02:20:00,
2013-06-21 22:21:00,67.1,64.4,30.23,NNW,331,0.0,0.0,91,0.00,,,0.00,Wunderground v.1.15,2013-06-22 02:21:00,
2013-06-21 22:23:00,67.1,64.7,30.23,NNW,331,0.0,0.0,92,0.00,,,0.00,Wunderground v.1.15,2013-06-22 02:23:00,
2013-06-21 22:25:00,67.1,64.7,30.23,NNW,332,0.0,0.0,92,0.00,,,0.00,Wunderground v.1.15,2013-06-22 02:25:00,
2013-06-21 22:26:00,67.1,64.7,30.23,NNW,331,0.0,0.0,92,0.00,,,0.00,Wunderground v.1.15,2013-06-22 02:26:00,
2013-06-21 22:27:00,67.0,64.6,30.24,NNW,331,0.0,0.0,92,0.00,,,0.00,Wunderground v.1.15,2013-06-22 02:27:00,
2013-06-21 22:28:00,67.0,64.6,30.24,NNW,332,0.0,0.0,92,0.00,,,0.00,Wunderground v.1.15,2013-06-22 02:28:00,
2013-06-21 22:29:00,67.0,64.6,30.24,NNW,331,0.0,0.0,92,0.00,,,0.00,Wunderground v.1.15,2013-06-22 02:29:00,
2013-06-21 22:30:00,67.0,64.6,30.24,NNW,331,0.0,0.0,92,0.00,,,0.00,Wunderground v.1.15,2013-06-22 02:30:00,
2013-06-21 22:31:00,66.9,64.5,30.24,NNW,331,0.0,0.0,92,0.00,,,0.00,Wunderground v.1.15,2013-06-22 02:31:00,
2013-06-21 22:32:00,66.9,64.5,30.24,NNW,331,0.0,0.0,92,0.00,,,0.00,Wunderground v.1.15,2013-06-22 02:32:00,
2013-06-21 22:33:00,66.9,64.5,30.24,NNW,331,0.0,0.0,92,0.00,,,0.00,Wunderground v.1.15,2013-06-22 02:33:00,
2013-06-21 22:34:00,66.9,64.5,30.24,NNW,331,0.0,0.0,92,0.00,,,0.00,Wunderground v.1.15,2013-06-22 02:34:00,
2013-06-21 22:36:00,66.8,64.4,30.24,NNW,332,0.0,0.0,92,0.00,,,0.00,Wunderground v.1.15,2013-06-22 02:36:00,
2013-06-21 22:37:00,66.8,64.4,30.24,NNW,331,0.0,0.0,92,0.00,,,0.00,Wunderground v.1.15,2013-06-22 02:37:00,
2013-06-21 22:38:00,66.8,64.4,30.24,NNW,331,0.0,0.0,92,0.00,,,0.00,Wunderground v.1.15,2013-06-22 02:38:00,
2013-06-21 22:39:00,66.7,64.3,30.24,NNW,331,0.0,0.0,92,0.00,,,0.00,Wunderground v.1.15,2013-06-22 02:39:00,
2013-06-21 22:41:00,66.7,64.3,30.24,NNW,331,0.0,0.0,92,0.00,,,0.00,Wunderground v.1.15,2013-06-22 02:41:00,
2013-06-21 22:42:00,66.6,64.2,30.24,NNW,331,0.0,0.0,92,0.00,,,0.00,Wunderground v.1.15,2013-06-22 02:42:00,
2013-06-21 22:43:00,66.6,64.2,30.24,NNW,331,0.0,0.0,92,0.00,,,0.00,Wunderground v.1.15,2013-06-22 02:43:00,
2013-06-21 22:45:00,66.5,64.1,30.24,NNW,332,0.0,0.0,92,0.00,,,0.00,Wunderground v.1.15,2013-06-22 02:45:00,
2013-06-21 22:46:00,66.5,64.1,30.24,NNW,331,0.0,0.0,92,0.00,,,0.00,Wunderground v.1.15,2013-06-22 02:46:00,
2013-06-21 22:48:00,66.5,64.1,30.24,NNW,331,0.0,0.0,92,0.00,,,0.00,Wunderground v.1.15,2013-06-22 02:48:00,
2013-06-21 22:49:00,66.5,64.4,30.24,NNW,331,0.0,0.0,93,0.00,,,0.00,Wunderground v.1.15,2013-06-22 02:49:00,
2013-06-21 22:50:00,66.5,64.4,30.24,NNW,332,0.0,0.0,93,0.00,,,0.00,Wunderground v.1.15,2013-06-22 02:50:00,
2013-06-21 22:51:00,66.4,64.3,30.24,NNW,331,0.0,0.0,93,0.00,,,0.00,Wunderground v.1.15,2013-06-22 02:51:00,
2013-06-21 22:53:00,66.4,64.3,30.24,NNW,331,0.0,0.0,93,0.00,,,0.00,Wunderground v.1.15,2013-06-22 02:53:00,
2013-06-21 22:54:00,66.4,64.0,30.25,NNW,331,0.0,0.0,92,0.00,,,0.00,Wunderground v.1.15,2013-06-22 02:54:00,
2013-06-21 22:55:00,66.4,64.0,30.24,NNW,332,0.0,0.0,92,0.00,,,0.00,Wunderground v.1.15,2013-06-22 02:55:00,
2013-06-21 22:56:00,66.4,64.0,30.25,NNW,331,0.0,0.0,92,0.00,,,0.00,Wunderground v.1.15,2013-06-22 02:56:00,
2013-06-21 22:57:00,66.3,64.2,30.25,NNW,331,0.0,0.0,93,0.00,,,0.00,Wunderground v.1.15,2013-06-22 02:57:00,
2013-06-21 22:59:00,66.3,64.2,30.25,NNW,331,0.0,0.0,93,0.00,,,0.00,Wunderground v.1.15,2013-06-22 02:59:00,
2013-06-21 23:01:00,66.2,64.1,30.25,NNW,331,0.0,0.0,93,0.00,,,0.00,Wunderground v.1.15,2013-06-22 03:01:00,
2013-06-21 23:02:00,66.2,64.1,30.25,NNW,332,0.0,0.0,93,0.00,,,0.00,Wunderground v.1.15,2013-06-22 03:02:00,
2013-06-21 23:04:00,66.1,64.0,30.25,NNW,331,0.0,0.0,93,0.00,,,0.00,Wunderground v.1.15,2013-06-22 03:04:00,
2013-06-21 23:06:00,66.0,63.9,30.25,NNW,331,0.0,0.0,93,0.00,,,0.00,Wunderground v.1.15,2013-06-22 03:06:00,
2013-06-21 23:07:00,65.9,63.8,30.25,NNW,331,0.0,0.0,93,0.00,,,0.00,Wunderground v.1.15,2013-06-22 03:07:00,
2013-06-21 23:09:00,65.8,63.7,30.25,NNW,331,0.0,0.0,93,0.00,,,0.00,Wunderground v.1.15,2013-06-22 03:09:00,
2013-06-21 23:11:00,65.7,63.6,30.25,NNW,331,0.0,0.0,93,0.00,,,0.00,Wunderground v.1.15,2013-06-22 03:11:00,
2013-06-21 23:12:00,65.7,63.6,30.25,NNW,331,0.0,0.0,93,0.00,,,0.00,Wunderground v.1.15,2013-06-22 03:12:00,
2013-06-21 23:14:00,65.6,63.5,30.25,NNW,331,0.0,0.0,93,0.00,,,0.00,Wunderground v.1.15,2013-06-22 03:14:00,
2013-06-21 23:15:00,65.7,63.9,30.25,NNW,331,0.0,0.0,94,0.00,,,0.00,Wunderground v.1.15,2013-06-22 03:15:00,
2013-06-21 23:16:00,65.6,63.8,30.25,NNW,331,0.0,0.0,94,0.00,,,0.00,Wunderground v.1.15,2013-06-22 03:16:00,
2013-06-21 23:17:00,65.6,63.8,30.25,NNW,331,0.0,0.0,94,0.00,,,0.00,Wunderground v.1.15,2013-06-22 03:17:00,
2013-06-21 23:19:00,65.6,63.8,30.25,NNW,331,0.0,0.0,94,0.00,,,0.00,Wunderground v.1.15,2013-06-22 03:19:00,
2013-06-21 23:20:00,65.6,63.8,30.25,NNW,331,0.0,0.0,94,0.00,,,0.00,Wunderground v.1.15,2013-06-22 03:20:00,
2013-06-21 23:21:00,65.6,63.8,30.25,NNW,331,0.0,0.0,94,0.00,,,0.00,Wunderground v.1.15,2013-06-22 03:21:00,
2013-06-21 23:22:00,65.6,63.8,30.25,NNW,332,0.0,0.0,94,0.00,,,0.00,Wunderground v.1.15,2013-06-22 03:22:00,
2013-06-21 23:25:00,65.5,63.7,30.25,NNW,332,0.0,0.0,94,0.00,,,0.00,Wunderground v.1.15,2013-06-22 03:25:00,
2013-06-21 23:26:00,65.5,63.7,30.25,NNW,332,0.0,0.0,94,0.00,,,0.00,Wunderground v.1.15,2013-06-22 03:26:00,
2013-06-21 23:27:00,65.5,63.7,30.25,NNW,332,0.0,0.0,94,0.00,,,0.00,Wunderground v.1.15,2013-06-22 03:27:00,
2013-06-21 23:28:00,65.5,63.7,30.25,NNW,332,0.0,0.0,94,0.00,,,0.00,Wunderground v.1.15,2013-06-22 03:28:00,
2013-06-21 23:30:00,65.5,63.7,30.25,NNW,331,0.0,0.0,94,0.00,,,0.00,Wunderground v.1.15,2013-06-22 03:30:00,
2013-06-21 23:31:00,65.5,63.7,30.25,NNW,331,0.0,0.0,94,0.00,,,0.00,Wunderground v.1.15,2013-06-22 03:31:00,
2013-06-21 23:32:00,65.5,63.7,30.25,NNW,331,0.0,0.0,94,0.00,,,0.00,Wunderground v.1.15,2013-06-22 03:32:00,
2013-06-21 23:33:00,65.5,63.7,30.25,NNW,331,0.0,0.0,94,0.00,,,0.00,Wunderground v.1.15,2013-06-22 03:33:00,
2013-06-21 23:35:00,65.4,63.6,30.25,NNW,332,0.0,0.0,94,0.00,,,0.00,Wunderground v.1.15,2013-06-22 03:35:00,
2013-06-21 23:36:00,65.4,63.6,30.25,NNW,331,0.0,0.0,94,0.00,,,0.00,Wunderground v.1.15,2013-06-22 03:36:00,
2013-06-21 23:37:00,65.4,63.6,30.25,NNW,331,0.0,0.0,94,0.00,,,0.00,Wunderground v.1.15,2013-06-22 03:37:00,
2013-06-21 23:38:00,65.4,63.6,30.25,NNW,332,0.0,0.0,94,0.00,,,0.00,Wunderground v.1.15,2013-06-22 03:38:00,
2013-06-21 23:40:00,65.4,63.6,30.25,NNW,331,0.0,0.0,94,0.00,,,0.00,Wunderground v.1.15,2013-06-22 03:40:00,
2013-06-21 23:41:00,65.3,63.5,30.25,NNW,332,0.0,0.0,94,0.00,,,0.00,Wunderground v.1.15,2013-06-22 03:41:00,
2013-06-21 23:42:00,65.3,63.5,30.25,NNW,331,0.0,0.0,94,0.00,,,0.00,Wunderground v.1.15,2013-06-22 03:42:00,
2013-06-21 23:43:00,65.3,63.5,30.25,NNW,331,0.0,0.0,94,0.00,,,0.00,Wunderground v.1.15,2013-06-22 03:43:00,
2013-06-21 23:45:00,65.2,63.4,30.25,NNW,331,0.0,0.0,94,0.00,,,0.00,Wunderground v.1.15,2013-06-22 03:45:00,
2013-06-21 23:46:00,65.2,63.4,30.25,NNW,331,0.0,0.0,94,0.00,,,0.00,Wunderground v.1.15,2013-06-22 03:46:00,
2013-06-21 23:47:00,65.1,63.3,30.25,NNW,331,0.0,0.0,94,0.00,,,0.00,Wunderground v.1.15,2013-06-22 03:47:00,
2013-06-21 23:48:00,65.1,63.3,30.26,NNW,332,0.0,0.0,94,0.00,,,0.00,Wunderground v.1.15,2013-06-22 03:48:00,
2013-06-21 23:50:00,65.1,63.3,30.26,NNW,331,0.0,0.0,94,0.00,,,0.00,Wunderground v.1.15,2013-06-22 03:50:00,
2013-06-21 23:51:00,65.1,63.6,30.26,NNW,332,0.0,0.0,95,0.00,,,0.00,Wunderground v.1.15,2013-06-22 03:51:00,
2013-06-21 23:52:00,65.1,63.6,30.25,NNW,331,0.0,0.0,95,0.00,,,0.00,Wunderground v.1.15,2013-06-22 03:52:00,
2013-06-21 23:53:00,65.1,63.3,30.26,NNW,331,0.0,0.0,94,0.00,,,0.00,Wunderground v.1.15,2013-06-22 03:53:00,
2013-06-21 23:55:00,65.0,63.2,30.26,NNW,331,0.0,0.0,94,0.00,,,0.00,Wunderground v.1.15,2013-06-22 03:55:00,
2013-06-21 23:56:00,65.0,63.2,30.25,NNW,331,0.0,0.0,94,0.00,,,0.00,Wunderground v.1.15,2013-06-22 03:56:00,
2013-06-21 23:57:00,65.0,63.2,30.25,NNW,332,0.0,0.0,94,0.00,,,0.00,Wunderground v.1.15,2013-06-22 03:57:00,
2013-06-21 23:58:00,65.0,63.2,30.25,NNW,331,0.0,0.0,94,0.00,,,0.00,Wunderground v.1.15,2013-06-22 03:58:00,